                ,  0.485,  0.585,  0.685,  0.785,  0.885,  0.985,  1.085,  1.185,  1.285,  1.385,  1.485,  1.585,  1.685,  1.785,  1.885,  1.985,  2.085,  2.185,  2.285,  2.385,  2.485,  2.585,  2.685,  2.785,  2.885,  2.985,  3.085,  3.185,  3.285,  3.385,  3.485,  3.585,  3.685,  3.785,  3.885,  3.985,  4.085,  4.185,  4.285,  4.385,  4.485,  4.585,  4.685,  4.785,  4.885,  4.985,  5.085,  5.185,  5.285,  5.385,  5.485,  5.585,  5.685,  5.785,  5.885,  5.985,  6.085,  6.185,  6.285,  6.385,  6.485,  6.585,  6.685,  6.785,  6.885,  6.985,  7.085,  7.185,  7.285,  7.385,  7.485,  7.585,  7.685,  7.785,  7.885,  7.985,  8.085,  8.185,  8.285,  8.385
2007/10/13 00:00,    0.0,    0.0,  999.0,    0.2,    0.5,    0.3,    0.4,  999.0,  999.0,  999.0,  999.0,  999.0,   -0.3,  999.0,    0.4,   -0.1,    0.2,    0.5,    0.3,   -0.1,   -0.2,    0.2,   -0.0,    0.0,  999.0,    0.1,    0.1,    0.2,   -0.5,   -0.5,    0.1,    0.3,   -0.2,   -0.4,   -0.6,   -2.0,   -1.6,   -1.1,   -1.2,   -1.1,   -0.9,   -0.7,   -0.8,   -0.7,   -0.6,   -0.3,   -0.2,    0.2,    0.1,    0.3,   -0.4,    0.1,    0.2,    0.3,    0.1,    0.1,  999.0,   -0.3,   -0.4,   -0.2,    0.0,    0.1,    0.3,    0.3,  999.0,  999.0,  999.0,  999.0,  999.0,  999.0,  999.0,  999.0,  999.0,  999.0,  999.0,  999.0,  999.0,  999.0,  999.0,  999.0
2007/10/13 00:10,    0.2,    0.0,    0.1,    0.3,    0.2,    0.4,    0.2,  999.0,  999.0,   -0.4,  999.0,    1.2,    0.7,    0.0,    0.5,   -0.3,    0.0,   -0.1,    0.1,    0.1,   -0.0,    0.0,    0.1,   -0.2,    0.0,    0.3,    0.4,  999.0,  999.0,   -0.6,   -0.2,   -0.3,   -0.3,   -0.3,   -0.7,   -1.1,   -1.3,   -1.1,   -0.9,   -1.0,   -0.9,   -0.9,   -0.9,   -0.9,   -0.9,   -0.8,   -0.6,   -0.3,   -0.2,   -0.4,  999.0,  999.0,  999.0,  999.0,    0.1,  999.0,  999.0,  999.0,  999.0,   -0.3,   -0.1,  999.0,  999.0,  999.0,  999.0,  999.0,  999.0,  999.0,  999.0,  999.0,  999.0,  999.0,  999.0,  999.0,  999.0,  999.0,  999.0,  999.0,  999.0,  999.0
2007/10/13 00:20,    0.0,    0.0,    0.6,    0.0,    0.5,    0.3,  999.0,  999.0,  999.0,  999.0,  999.0,    0.3,    0.3,    0.0,   -0.6,   -0.7,   -0.3,   -0.3,   -0.3,   -0.4,   -0.4,    0.0,   -0.2,    0.0,   -0.1,    0.1,  999.0,    0.4,  999.0,   -0.4,   -0.8,   -0.2,   -0.5,   -0.7,   -0.8,   -0.7,   -0.9,   -0.7,   -0.6,   -0.6,   -0.5,   -0.5,   -0.5,   -0.5,   -0.5,   -0.4,   -0.2,   -0.1,   -0.1,   -0.0,    0.0,  999.0,  999.0,  999.0,  999.0,  999.0,  999.0,  999.0,    0.4,  999.0,  999.0,  999.0,  999.0,  999.0,  999.0,  999.0,  999.0,  999.0,  999.0,  999.0,  999.0,  999.0,  999.0,  999.0,  999.0,  999.0,  999.0,  999.0,  999.0,  999.0
2007/10/13 00:30,    0.1,    0.1,  999.0,    0.1,    0.2,    0.2,  999.0,    0.0,  999.0,  999.0,    0.5,  999.0,   -0.1,   -0.5,    0.1,    0.2,   -0.2,   -0.0,   -0.2,    0.2,    0.3,    0.2,   -0.1,    0.1,    0.4,   -0.4,   -0.8,   -0.6,  999.0,   -1.6,   -1.6,   -1.5,   -1.4,   -1.5,   -1.5,   -1.7,   -1.5,   -1.3,   -1.3,   -1.3,   -1.1,   -0.9,   -0.7,   -0.6,   -0.6,   -0.4,   -0.3,   -0.2,   -0.0,    0.1,    0.0,  999.0,  999.0,  999.0,  999.0,  999.0,  999.0,  999.0,    0.1,  999.0,    0.5,  999.0,  999.0,  999.0,  999.0,  999.0,  999.0,  999.0,  999.0,  999.0,  999.0,  999.0,  999.0,  999.0,  999.0,  999.0,  999.0,  999.0,  999.0,  999.0
2007/10/13 00:40,    0.0,    0.0,    0.0,    0.2,    0.3,    0.2,    0.2,    0.2,  999.0,    0.1,    0.2,  999.0,  999.0,    0.2,   -0.5,    0.1,   -0.2,    0.1,    0.1,    0.3,    0.2,    0.1,    0.1,    0.0,    0.1,   -0.3,   -0.3,   -0.9,   -1.1,   -1.1,   -1.1,   -1.2,   -1.2,   -1.1,   -1.0,   -1.0,   -0.7,   -0.6,   -0.7,   -0.7,   -0.6,   -0.7,   -0.4,   -0.2,   -0.2,   -0.1,    0.0,    0.2,    0.2,    0.1,    0.1,    0.2,    0.2,    0.3,  999.0,  999.0,  999.0,  999.0,  999.0,    0.3,  999.0,  999.0,  999.0,  999.0,  999.0,  999.0,  999.0,  999.0,  999.0,  999.0,  999.0,  999.0,  999.0,  999.0,  999.0,  999.0,  999.0,  999.0,  999.0,  999.0
2007/10/13 00:50,    0.0,    0.0,   -0.1,    0.2,    0.3,    0.3,  999.0,  999.0,    0.2,  999.0,   -0.1,    0.2,   -0.7,  999.0,  999.0,   -0.0,   -0.3,    0.4,    0.4,    0.2,   -0.0,    0.3,    0.3,    0.1,    0.2,    0.5,    0.4,   -0.3,   -0.6,   -0.6,   -0.6,   -0.5,   -0.7,   -0.8,   -0.7,   -0.7,   -0.6,   -0.4,   -0.5,   -0.2,   -0.1,   -0.3,   -0.2,   -0.1,   -0.1,    0.0,    0.1,    0.1,    0.3,    0.1,  999.0,    0.4,  999.0,  999.0,  999.0,  999.0,  999.0,  999.0,  999.0,  999.0,  999.0,  999.0,  999.0,  999.0,  999.0,  999.0,  999.0,  999.0,  999.0,  999.0,  999.0,  999.0,  999.0,  999.0,  999.0,  999.0,  999.0,  999.0,  999.0,  999.0
2007/10/13 01:00,    0.0,   -0.0,    0.0,    0.3,    0.2,    0.4,    0.3,  999.0,    0.3,    0.1,  999.0,    0.1,    0.1,    0.0,    0.2,    0.3,    0.3,    0.2,    0.2,    0.3,  999.0,    0.3,    0.5,    1.0,    0.1,    0.3,    0.1,    0.1,    0.2,   -0.3,   -0.4,   -0.2,   -0.3,   -0.7,   -0.7,   -0.6,   -0.5,   -0.4,   -0.1,   -0.1,    0.0,   -0.0,    0.2,    0.2,    0.2,   -0.0,   -0.1,    0.2,    0.2,    0.3,    0.1,  999.0,    0.1,    0.2,    0.2,    0.2,  999.0,  999.0,  999.0,  999.0,  999.0,  999.0,  999.0,  999.0,  999.0,  999.0,  999.0,  999.0,  999.0,  999.0,  999.0,  999.0,  999.0,  999.0,  999.0,  999.0,  999.0,  999.0,  999.0,  999.0
2007/10/13 01:10,   -0.2,    0.0,    0.0,    0.1,    0.3,    0.5,    0.4,    0.2,  999.0,  999.0,  999.0,   -0.1,  999.0,  999.0,   -0.5,   -0.3,   -0.2,   -0.3,   -0.4,   -0.2,   -0.8,   -0.0,    0.0,   -0.0,   -0.0,    0.2,    0.2,    0.1,   -0.0,   -0.1,   -0.2,   -0.1,   -0.1,   -0.2,   -0.3,   -0.3,   -0.2,   -0.2,   -0.1,   -0.1,   -0.2,   -0.2,    0.1,   -0.1,    0.0,   -0.0,   -0.3,   -0.2,   -0.2,    0.0,   -0.0,  999.0,  999.0,  999.0,    0.1,    0.1,    0.1,  999.0,  999.0,  999.0,  999.0,  999.0,  999.0,  999.0,  999.0,  999.0,  999.0,  999.0,  999.0,  999.0,  999.0,  999.0,  999.0,  999.0,  999.0,  999.0,  999.0,  999.0,  999.0,  999.0
2007/10/13 01:20,  999.0,    0.0,   -0.1,   -0.0,   -0.1,   -0.1,    0.1,    0.4,  999.0,  999.0,   -0.2,    0.1,    0.8,    0.4,   -0.0,    0.2,    0.2,    0.2,    0.3,    0.1,    0.1,    0.1,    0.1,    0.1,    0.1,    0.1,    0.4,    0.4,    0.2,    0.1,    0.2,    0.2,    0.1,   -0.5,   -0.5,   -0.5,   -0.4,   -0.4,   -0.1,   -0.0,   -0.0,    0.0,    0.1,   -0.0,   -0.0,   -0.1,   -0.1,  999.0,  999.0,   -0.2,   -0.0,  999.0,  999.0,  999.0,  999.0,  999.0,    0.3,   -0.1,  999.0,  999.0,  999.0,  999.0,  999.0,  999.0,    0.1,  999.0,  999.0,  999.0,  999.0,  999.0,  999.0,  999.0,  999.0,  999.0,  999.0,  999.0,  999.0,  999.0,  999.0,  999.0
2007/10/13 01:30,    0.1,    0.0,   -0.0,   -0.1,    0.1,   -0.1,  999.0,   -0.3,  999.0,  999.0,  999.0,   -0.0,    0.4,  999.0,    0.0,    0.5,    0.0,    0.4,    0.5,    0.1,    0.1,   -0.0,   -0.1,    0.0,   -0.1,    0.1,    0.2,    0.1,    0.0,    0.1,    0.1,    0.2,    0.0,   -0.4,   -0.5,   -0.4,   -0.3,   -0.2,    0.1,    0.1,    0.1,    0.2,    0.3,    0.2,    0.2,  999.0,  999.0,  999.0,  999.0,   -0.1,    0.1,  999.0,  999.0,  999.0,  999.0,  999.0,  999.0,  999.0,  999.0,  999.0,  999.0,  999.0,  999.0,  999.0,  999.0,  999.0,  999.0,  999.0,  999.0,  999.0,  999.0,  999.0,  999.0,  999.0,  999.0,  999.0,  999.0,  999.0,  999.0,  999.0
2007/10/13 01:40,   -0.0,   -0.1,    0.1,    0.1,    0.0,    0.1,    0.1,  999.0,  999.0,  999.0,  999.0,  999.0,   -0.2,    0.1,    0.1,    0.0,    0.7,    0.5,    0.5,    0.5,    0.2,    0.1,    0.2,    0.0,    0.1,    0.1,    0.1,   -0.0,   -0.0,   -0.1,   -0.1,   -0.1,   -0.1,   -0.1,   -0.1,   -0.2,   -0.2,   -0.1,   -0.4,   -0.3,   -0.3,   -0.3,   -0.2,   -0.2,   -0.2,   -0.5,   -0.4,   -0.5,   -0.2,   -0.0,    0.0,    0.3,  999.0,  999.0,  999.0,  999.0,  999.0,  999.0,  999.0,  999.0,  999.0,  999.0,  999.0,  999.0,  999.0,  999.0,  999.0,  999.0,  999.0,  999.0,  999.0,  999.0,  999.0,  999.0,  999.0,  999.0,  999.0,  999.0,  999.0,  999.0
2007/10/13 01:50,    0.0,    0.0,    0.0,    0.0,    0.2,    0.3,   -0.0,    0.1,    0.0,   -0.3,   -0.0,   -0.5,   -0.6,   -0.2,   -0.2,   -0.4,   -0.2,    0.1,   -0.1,    0.6,  999.0,   -0.2,    0.1,    0.0,    0.1,    0.1,    0.1,   -0.1,   -0.4,   -0.8,   -1.1,   -1.2,   -1.1,   -1.2,   -1.2,   -1.0,   -0.9,   -0.8,   -0.8,   -0.7,   -0.6,   -0.4,   -0.8,   -0.4,   -0.3,    0.0,   -0.1,   -0.3,   -0.2,    0.0,   -0.1,  999.0,  999.0,  999.0,  999.0,  999.0,  999.0,    0.2,    0.3,  999.0,  999.0,  999.0,  999.0,  999.0,  999.0,  999.0,  999.0,  999.0,  999.0,  999.0,  999.0,  999.0,  999.0,  999.0,  999.0,  999.0,  999.0,  999.0,  999.0,  999.0
2007/10/13 02:00,   -0.0,    0.0,    0.0,   -0.1,    0.0,   -0.1,    0.1,   -0.1,    0.3,   -0.1,  999.0,   -0.2,    0.3,    0.4,   -0.0,   -0.2,    0.1,    0.4,    0.7,    0.4,    0.6,   -0.0,    0.1,    0.0,   -0.1,    0.1,    0.2,    0.1,    0.1,   -0.1,   -0.2,   -0.2,   -0.3,   -0.5,   -0.5,   -0.4,   -0.5,   -0.2,   -0.2,   -0.4,   -0.2,   -0.0,   -0.1,   -0.3,   -0.3,   -0.4,   -0.3,   -0.1,   -0.1,   -0.1,  999.0,  999.0,  999.0,   -0.0,  999.0,  999.0,  999.0,  999.0,  999.0,  999.0,  999.0,  999.0,  999.0,  999.0,  999.0,  999.0,    0.3,  999.0,  999.0,  999.0,  999.0,  999.0,  999.0,  999.0,  999.0,  999.0,  999.0,  999.0,  999.0,  999.0
2007/10/13 02:10,    0.4,    0.1,   -0.0,   -0.0,   -0.2,    0.2,    0.1,   -0.1,   -0.7,   -0.1,    0.0,    0.5,   -0.2,   -0.1,   -0.3,   -0.2,   -0.3,   -0.1,    0.3,    0.4,    0.1,  999.0,    0.3,    0.1,    0.1,    0.1,    0.1,   -0.0,   -0.1,   -0.1,   -0.2,   -0.2,   -0.2,   -0.2,   -0.2,   -0.2,   -0.4,   -0.5,   -0.6,   -0.3,   -0.2,   -0.0,   -0.1,   -0.4,   -0.4,   -0.3,   -0.1,   -0.0,    0.0,    0.0,    0.1,  999.0,  999.0,  999.0,  999.0,  999.0,  999.0,  999.0,  999.0,  999.0,  999.0,  999.0,  999.0,  999.0,  999.0,  999.0,  999.0,  999.0,  999.0,  999.0,  999.0,  999.0,  999.0,  999.0,  999.0,  999.0,  999.0,  999.0,  999.0,  999.0
2007/10/13 02:20,    0.0,    0.1,   -0.0,    0.1,    0.4,    0.4,    0.2,    0.2,    0.2,    0.0,  999.0,  999.0,  999.0,  999.0,  999.0,   -0.7,   -0.6,    0.1,    0.4,    0.2,    0.2,    0.3,   -0.0,    0.1,    0.1,    0.1,    0.1,    0.1,    0.1,   -0.0,    0.2,    0.1,   -0.3,   -0.1,   -0.3,   -0.6,   -0.4,   -0.3,   -0.4,   -0.5,   -0.5,   -0.4,    0.0,    0.1,    0.2,    0.3,    0.2,    0.2,    0.2,    0.3,    0.4,  999.0,  999.0,  999.0,  999.0,  999.0,  999.0,  999.0,  999.0,  999.0,  999.0,  999.0,  999.0,  999.0,  999.0,  999.0,  999.0,    0.4,  999.0,  999.0,  999.0,  999.0,  999.0,  999.0,  999.0,  999.0,  999.0,  999.0,  999.0,  999.0
2007/10/13 02:30,    0.1,   -0.0,    0.0,    0.1,    0.3,    0.2,    0.2,   -0.1,  999.0,  999.0,    1.0,    0.3,  999.0,  999.0,  999.0,  999.0,  999.0,  999.0,   -0.2,   -0.1,    0.1,   -0.0,    0.1,    0.1,    0.0,    0.1,    0.1,   -0.0,   -0.1,   -0.2,   -0.2,   -0.3,   -0.2,   -0.1,   -0.3,   -0.1,   -0.4,   -0.4,  999.0,   -0.4,   -0.3,   -0.3,   -0.3,   -0.0,    0.1,    0.1,    0.0,   -0.0,    0.0,    0.2,    0.4,  999.0,  999.0,  999.0,  999.0,  999.0,  999.0,  999.0,  999.0,  999.0,  999.0,  999.0,  999.0,  999.0,  999.0,  999.0,  999.0,  999.0,  999.0,  999.0,  999.0,  999.0,  999.0,  999.0,  999.0,  999.0,  999.0,  999.0,  999.0,  999.0
2007/10/13 02:40,    0.2,    0.0,   -0.1,    0.1,    0.5,    0.6,    0.3,    0.3,    0.0,  999.0,  999.0,  999.0,  999.0,  999.0,   -0.0,   -0.2,   -0.0,   -0.1,    0.0,   -0.3,   -0.4,   -0.0,    0.0,    0.1,    0.1,    0.3,    0.2,    0.1,   -0.1,   -0.2,   -0.2,   -0.6,   -0.5,   -0.7,   -0.9,   -0.8,   -0.7,   -0.7,   -0.6,   -0.6,   -0.4,   -0.4,   -0.3,   -0.2,    0.1,    0.1,    0.0,    0.2,    0.2,    0.1,  999.0,  999.0,  999.0,  999.0,  999.0,  999.0,    0.2,  999.0,  999.0,  999.0,  999.0,  999.0,  999.0,  999.0,  999.0,  999.0,  999.0,  999.0,  999.0,  999.0,  999.0,  999.0,  999.0,  999.0,  999.0,  999.0,  999.0,  999.0,  999.0,  999.0
2007/10/13 02:50,    0.0,   -0.0,   -0.0,    0.1,    0.3,    0.5,    0.4,    0.2,    0.4,  999.0,  999.0,  999.0,  999.0,  999.0,    0.4,    0.3,   -0.0,   -0.2,   -0.2,   -0.1,   -0.2,   -0.1,   -0.1,    0.1,    0.0,    0.2,    0.2,    0.2,    0.1,   -0.0,   -0.1,   -0.1,   -0.1,   -0.4,   -0.7,   -0.8,   -0.7,   -0.7,   -0.8,   -0.6,   -0.4,   -0.3,   -0.2,    0.1,    0.1,    0.1,    0.0,    0.2,    0.1,    0.2,  999.0,  999.0,  999.0,  999.0,  999.0,  999.0,  999.0,  999.0,  999.0,  999.0,  999.0,  999.0,  999.0,  999.0,    0.1,    0.0,  999.0,  999.0,  999.0,  999.0,  999.0,  999.0,  999.0,  999.0,  999.0,  999.0,  999.0,  999.0,  999.0,  999.0
2007/10/13 03:00,   -0.0,   -0.0,   -0.0,    0.1,    0.4,    0.7,    0.4,    0.4,    0.2,  999.0,  999.0,  999.0,  999.0,    0.5,    0.4,  999.0,   -0.0,   -0.0,   -0.1,    0.0,   -0.1,   -0.2,    0.0,    0.0,    0.0,    0.1,    0.2,    0.2,    0.1,    0.1,    0.1,   -0.0,   -0.0,   -0.0,   -0.0,    0.0,   -0.0,   -0.0,   -0.2,   -0.2,    0.1,    0.3,    0.3,    0.3,    0.3,    0.1,    0.0,    0.1,    0.2,  999.0,  999.0,  999.0,  999.0,  999.0,  999.0,  999.0,  999.0,  999.0,  999.0,    0.3,    0.1,    0.4,  999.0,   -0.0,  999.0,   -0.2,  999.0,  999.0,  999.0,  999.0,  999.0,  999.0,  999.0,  999.0,  999.0,  999.0,  999.0,  999.0,  999.0,  999.0
2007/10/13 03:10,    0.1,   -0.0,   -0.0,    0.1,    0.6,    0.6,    0.6,    0.6,  999.0,  999.0,  999.0,    0.6,    0.3,  999.0,  999.0,  999.0,  999.0,    0.2,    0.2,    0.1,    0.2,    0.3,    0.3,    0.0,    0.1,    0.1,    0.2,    0.1,    0.0,    0.1,    0.0,    0.0,    0.0,    0.0,   -0.2,   -0.1,   -0.3,   -0.5,   -0.5,   -0.4,   -0.1,    0.0,    0.2,    0.2,    0.1,  999.0,    0.1,    0.1,    0.0,    0.1,   -0.0,  999.0,  999.0,  999.0,  999.0,  999.0,  999.0,  999.0,   -0.1,  999.0,    0.2,  999.0,  999.0,   -0.3,   -0.2,  999.0,  999.0,  999.0,  999.0,  999.0,  999.0,  999.0,  999.0,  999.0,  999.0,  999.0,  999.0,  999.0,  999.0,  999.0
2007/10/13 03:20,  999.0,    0.0,    0.0,    0.1,    0.2,    0.5,    0.5,    0.6,  999.0,  999.0,  999.0,  999.0,  999.0,  999.0,    1.1,  999.0,  999.0,   -0.1,    0.0,    0.0,   -0.0,    0.1,    0.1,    0.1,    0.0,    0.0,    0.0,    0.0,    0.1,    0.0,    0.1,    0.0,   -0.0,   -0.0,   -0.1,   -0.1,   -0.2,   -0.4,   -0.1,   -0.1,    0.2,    0.3,    0.3,    0.4,  999.0,  999.0,    0.1,    0.2,  999.0,  999.0,  999.0,  999.0,  999.0,  999.0,  999.0,  999.0,  999.0,  999.0,  999.0,  999.0,  999.0,  999.0,  999.0,   -0.1,  999.0,  999.0,  999.0,  999.0,  999.0,  999.0,  999.0,  999.0,  999.0,  999.0,  999.0,  999.0,  999.0,  999.0,  999.0,  999.0
2007/10/13 03:30,   -0.0,   -0.1,    0.1,    0.2,    0.4,    0.3,    0.6,  999.0,  999.0,  999.0,    0.3,    0.0,    0.2,  999.0,    0.3,  999.0,    0.2,    0.1,    0.2,    0.2,    0.1,    0.1,    0.1,    0.1,    0.1,    0.1,    0.1,    0.1,    0.1,    0.1,    0.0,    0.1,    0.0,   -0.0,   -0.1,   -0.1,    0.1,    0.1,   -0.1,  999.0,    0.1,    0.2,    0.3,    0.3,    0.3,  999.0,   -0.1,    0.0,  999.0,  999.0,  999.0,  999.0,  999.0,  999.0,  999.0,  999.0,  999.0,  999.0,  999.0,  999.0,  999.0,  999.0,  999.0,  999.0,    0.3,    0.0,  999.0,  999.0,  999.0,  999.0,  999.0,  999.0,  999.0,  999.0,  999.0,  999.0,  999.0,  999.0,  999.0,  999.0
2007/10/13 03:40,  999.0,    0.1,   -0.0,    0.1,    0.4,    0.6,    0.3,    0.3,    0.2,  999.0,  999.0,  999.0,  999.0,   -0.1,  999.0,  999.0,   -0.9,    0.1,    0.1,    0.3,    0.2,    0.3,    0.1,    0.0,    0.0,    0.3,    0.3,    0.3,    0.3,    0.3,    0.3,    0.2,    0.1,   -0.0,   -0.0,   -0.0,    0.0,    0.2,  999.0,   -0.0,    0.2,    0.3,    0.4,    0.4,  999.0,  999.0,    0.1,    0.4,  999.0,  999.0,  999.0,  999.0,  999.0,  999.0,  999.0,  999.0,  999.0,  999.0,  999.0,  999.0,  999.0,  999.0,  999.0,    0.2,    0.2,  999.0,  999.0,  999.0,  999.0,  999.0,  999.0,  999.0,  999.0,  999.0,  999.0,  999.0,  999.0,  999.0,  999.0,  999.0
2007/10/13 03:50,  999.0,    0.0,    0.0,    0.0,    0.2,    0.3,    0.1,    0.5,    0.3,    0.5,    0.4,   -0.1,    0.0,    0.1,   -0.1,   -0.1,   -0.1,    0.0,    0.1,   -0.0,    0.0,    0.0,   -0.0,    0.0,   -0.2,    0.1,    0.2,    0.2,    0.2,    0.1,    0.1,    0.1,    0.0,    0.1,    0.1,    0.1,    0.1,    0.1,   -0.4,   -0.4,    0.0,    0.2,    0.1,   -0.0,   -0.2,    0.1,    0.1,    0.3,  999.0,  999.0,  999.0,  999.0,  999.0,  999.0,  999.0,  999.0,  999.0,  999.0,  999.0,  999.0,  999.0,  999.0,  999.0,    0.2,    0.3,    0.0,  999.0,  999.0,  999.0,  999.0,  999.0,  999.0,  999.0,  999.0,  999.0,  999.0,  999.0,  999.0,  999.0,  999.0
2007/10/13 04:00,   -0.1,    0.2,    0.2,    0.3,    0.5,    0.5,    0.5,    0.6,    0.5,    0.6,    0.4,    0.3,    0.2,    0.4,  999.0,   -0.2,  999.0,    0.2,    0.2,    0.3,    0.3,    0.3,    0.2,    0.1,    0.1,    0.2,    0.2,    0.2,    0.2,    0.1,    0.1,   -0.0,    0.0,   -0.0,   -0.1,   -0.3,  999.0,   -0.3,   -0.6,   -0.5,   -0.5,   -0.3,   -0.2,   -0.1,   -0.1,    0.0,    0.2,    0.2,  999.0,  999.0,  999.0,  999.0,  999.0,  999.0,  999.0,    0.0,   -0.2,   -0.2,   -0.1,   -0.0,    0.0,    0.0,    0.0,    0.1,    0.1,    0.5,  999.0,  999.0,  999.0,  999.0,  999.0,  999.0,  999.0,  999.0,  999.0,  999.0,  999.0,  999.0,  999.0,  999.0
2007/10/13 04:10,   -0.0,    0.0,    0.0,    0.1,    0.3,    0.2,    0.2,    0.0,    0.3,    0.2,    0.1,    0.2,    0.2,    0.0,  999.0,  999.0,  999.0,    0.1,    0.1,    0.2,    0.1,    0.2,    0.2,    0.1,    0.0,    0.1,    0.1,    0.2,    0.3,    0.3,    0.2,    0.1,    0.1,    0.1,    0.1,    0.1,    0.2,    0.2,  999.0,    0.1,    0.3,    0.3,    0.0,  999.0,  999.0,  999.0,    0.1,    0.1,    0.2,  999.0,  999.0,  999.0,  999.0,  999.0,  999.0,    0.0,    0.1,    0.1,    0.1,    0.1,   -0.1,   -0.2,   -0.2,   -0.2,   -0.0,    0.1,   -0.0,  999.0,  999.0,  999.0,  999.0,  999.0,  999.0,  999.0,  999.0,  999.0,  999.0,  999.0,  999.0,  999.0
2007/10/13 04:20,    0.0,   -0.0,    0.1,    0.0,   -0.1,   -0.0,    0.1,  999.0,  999.0,    0.1,  999.0,  999.0,    0.1,    0.3,    0.1,  999.0,  999.0,    0.1,    0.2,    0.2,    0.3,    0.2,    0.1,    0.0,    0.0,    0.2,    0.2,    0.2,    0.2,    0.3,    0.2,    0.1,    0.0,    0.1,    0.1,    0.2,    0.1,    0.1,    0.2,    0.2,    0.1,    0.0,   -0.1,  999.0,  999.0,   -0.2,    0.0,    0.0,  999.0,  999.0,  999.0,  999.0,    0.0,  999.0,  999.0,  999.0,    0.1,    0.2,   -0.0,   -0.1,   -0.1,   -0.1,   -0.3,   -0.1,    0.1,    0.2,  999.0,  999.0,  999.0,  999.0,  999.0,  999.0,  999.0,  999.0,  999.0,  999.0,  999.0,  999.0,  999.0,  999.0
2007/10/13 04:30,  999.0,    0.0,   -0.0,   -0.0,   -0.2,   -0.2,   -0.3,  999.0,   -0.1,  999.0,   -0.1,   -0.4,   -0.3,   -0.2,   -0.2,    0.0,    0.2,   -0.2,   -0.2,   -0.1,    0.1,    0.1,    0.1,   -0.0,    0.0,    0.1,    0.2,    0.1,    0.2,    0.1,    0.1,    0.0,   -0.0,   -0.0,   -0.0,    0.0,    0.0,   -0.0,   -0.0,    0.0,  999.0,   -0.4,   -0.3,   -0.7,   -0.5,   -0.2,   -0.2,  999.0,  999.0,  999.0,  999.0,  999.0,  999.0,  999.0,  999.0,  999.0,  999.0,    0.2,    0.1,    0.2,    0.1,    0.1,   -0.0,    0.1,    0.3,  999.0,  999.0,  999.0,  999.0,  999.0,  999.0,  999.0,  999.0,  999.0,  999.0,  999.0,  999.0,  999.0,  999.0,  999.0
2007/10/13 04:40,   -0.0,   -0.0,    0.0,    0.0,   -0.0,   -0.1,   -0.0,   -0.7,  999.0,   -0.2,   -0.3,   -0.4,   -0.2,   -0.1,   -0.1,   -0.2,   -0.1,   -0.1,   -0.0,   -0.1,   -0.0,    0.3,    0.1,   -0.0,    0.0,    0.0,    0.1,    0.2,    0.2,    0.1,    0.2,    0.1,   -0.0,    0.0,   -0.0,   -0.0,   -0.1,   -0.2,   -0.1,   -0.1,   -0.2,   -0.6,   -0.5,   -0.6,   -0.3,   -0.1,   -0.3,  999.0,  999.0,  999.0,  999.0,  999.0,  999.0,  999.0,  999.0,  999.0,    0.1,    0.3,    0.3,    0.3,    0.0,   -0.1,   -0.3,   -0.1,   -0.2,    0.1,  999.0,  999.0,  999.0,  999.0,  999.0,  999.0,  999.0,  999.0,  999.0,  999.0,  999.0,  999.0,  999.0,  999.0
2007/10/13 04:50,    0.0,    0.0,    0.1,   -0.1,   -0.2,   -0.2,   -0.3,   -0.1,   -0.0,   -0.5,  999.0,   -0.4,   -0.4,   -0.3,   -0.1,   -0.6,   -0.2,   -0.2,   -0.3,   -0.2,   -0.2,   -0.2,   -0.2,   -0.1,   -0.0,   -0.0,   -0.1,   -0.1,   -0.1,   -0.1,   -0.2,   -0.2,   -0.1,   -0.2,   -0.4,   -0.4,   -0.2,   -0.3,   -0.3,   -0.1,   -0.1,   -0.2,  999.0,  999.0,  999.0,  999.0,   -0.3,  999.0,  999.0,  999.0,  999.0,  999.0,  999.0,  999.0,  999.0,  999.0,  999.0,  999.0,  999.0,  999.0,  999.0,  999.0,   -0.4,   -0.4,   -0.2,   -0.2,  999.0,  999.0,  999.0,  999.0,  999.0,  999.0,  999.0,  999.0,  999.0,  999.0,  999.0,  999.0,  999.0,  999.0
2007/10/13 05:00,  999.0,    0.0,   -0.0,   -0.1,   -0.2,   -0.5,  999.0,    0.3,   -0.4,   -0.4,   -0.2,   -0.3,   -0.2,   -0.1,   -0.1,   -0.1,   -0.1,   -0.0,   -0.1,   -0.0,    0.0,   -0.1,   -0.0,   -0.0,   -0.0,    0.1,    0.1,    0.1,    0.1,    0.0,    0.0,   -0.0,   -0.1,   -0.1,   -0.2,   -0.2,   -0.1,   -0.2,   -0.2,  999.0,  999.0,  999.0,   -0.3,  999.0,  999.0,  999.0,   -0.0,   -0.1,   -0.2,  999.0,  999.0,  999.0,  999.0,  999.0,  999.0,  999.0,  999.0,  999.0,  999.0,  999.0,  999.0,  999.0,  999.0,    0.1,  999.0,  999.0,  999.0,  999.0,  999.0,  999.0,  999.0,  999.0,  999.0,  999.0,  999.0,  999.0,  999.0,  999.0,  999.0,  999.0
2007/10/13 05:10,    0.0,    0.0,   -0.0,   -0.1,   -0.1,   -0.3,   -0.1,  999.0,   -0.0,   -0.3,   -0.4,   -0.4,   -0.2,   -0.1,  999.0,   -0.1,   -0.0,   -0.0,    0.1,    0.1,    0.1,    0.0,   -0.0,   -0.0,    0.0,    0.0,    0.1,    0.1,    0.1,    0.1,   -0.0,    0.0,    0.0,   -0.1,   -0.1,   -0.0,    0.0,   -0.0,    0.1,    0.0,  999.0,  999.0,  999.0,  999.0,  999.0,  999.0,   -0.1,   -0.2,   -0.0,  999.0,  999.0,  999.0,  999.0,  999.0,    0.3,  999.0,  999.0,  999.0,  999.0,  999.0,  999.0,  999.0,   -0.2,    0.1,  999.0,  999.0,  999.0,  999.0,  999.0,  999.0,  999.0,  999.0,  999.0,  999.0,  999.0,  999.0,  999.0,  999.0,  999.0,  999.0
2007/10/13 05:20,    0.1,  999.0,  999.0,    0.2,   -0.1,    0.2,    0.5,    0.4,   -0.0,    0.0,    0.0,   -0.2,   -0.1,    0.0,    0.1,    0.1,    0.1,    0.1,    0.1,    0.1,    0.1,    0.1,    0.1,   -0.0,    0.0,    0.0,    0.1,    0.1,    0.0,   -0.0,   -0.0,   -0.0,   -0.0,   -0.0,   -0.0,    0.0,    0.1,    0.2,    0.1,    0.2,  999.0,  999.0,  999.0,    0.1,  999.0,  999.0,  999.0,    0.1,    0.2,  999.0,  999.0,  999.0,  999.0,    0.2,    0.3,    0.4,   -0.0,   -0.2,   -0.2,   -0.0,   -0.1,   -0.2,   -0.2,   -0.2,   -0.2,   -0.1,  999.0,  999.0,  999.0,  999.0,  999.0,  999.0,  999.0,  999.0,  999.0,  999.0,  999.0,  999.0,  999.0,  999.0
2007/10/13 05:30,   -0.0,    0.0,   -0.0,    0.2,   -0.1,  999.0,  999.0,  999.0,  999.0,  999.0,   -0.2,   -0.3,   -0.2,   -0.2,   -0.2,   -0.0,    0.1,    0.1,    0.2,    0.1,    0.1,    0.1,    0.1,   -0.0,   -0.0,   -0.0,    0.0,    0.1,    0.0,   -0.0,    0.1,   -0.1,   -0.1,   -0.0,   -0.1,   -0.0,    0.0,    0.1,    0.1,  999.0,  999.0,  999.0,    0.2,    0.3,   -0.1,  999.0,  999.0,   -0.0,    0.0,  999.0,  999.0,  999.0,  999.0,  999.0,  999.0,    0.2,    0.1,    0.1,   -0.1,   -0.1,   -0.2,   -0.3,   -0.4,   -0.2,   -0.0,   -0.1,  999.0,  999.0,  999.0,  999.0,  999.0,  999.0,  999.0,  999.0,  999.0,  999.0,  999.0,  999.0,  999.0,  999.0
2007/10/13 05:40,    0.0,    0.1,    0.0,    0.0,   -0.3,   -0.2,   -0.3,   -0.1,   -0.2,   -0.3,   -0.3,   -0.2,   -0.3,   -0.2,   -0.2,   -0.2,   -0.0,    0.1,    0.1,    0.1,    0.1,    0.1,    0.1,    0.0,   -0.0,   -0.0,    0.1,    0.1,    0.1,    0.0,    0.0,    0.2,    0.0,    0.1,    0.0,    0.1,    0.2,    0.2,    0.2,  999.0,  999.0,  999.0,  999.0,  999.0,  999.0,  999.0,  999.0,    0.2,    0.3,    0.2,  999.0,  999.0,  999.0,   -0.3,  999.0,    0.2,    0.0,    0.1,   -0.0,   -0.1,   -0.2,   -0.2,   -0.3,   -0.0,  999.0,  999.0,  999.0,  999.0,  999.0,  999.0,  999.0,  999.0,  999.0,  999.0,  999.0,  999.0,  999.0,  999.0,  999.0,  999.0
2007/10/13 05:50,    0.0,   -0.0,    0.0,    0.0,    0.1,    0.1,    0.2,    0.2,    0.3,    0.1,    0.0,    0.1,    0.1,    0.0,   -0.0,   -0.0,    0.0,    0.1,    0.2,    0.2,    0.2,    0.1,    0.2,    0.0,   -0.0,    0.0,   -0.0,    0.1,    0.1,    0.0,  999.0,    0.2,    0.0,    0.2,    0.2,    0.2,    0.2,    0.3,    0.3,    0.2,  999.0,  999.0,  999.0,  999.0,  999.0,  999.0,   -0.7,  999.0,  999.0,   -1.2,   -0.9,   -1.3,  999.0,   -0.6,   -0.4,   -0.2,   -0.3,   -0.3,   -0.4,   -0.5,   -0.5,   -0.5,   -0.4,   -0.2,  999.0,  999.0,  999.0,  999.0,  999.0,  999.0,  999.0,  999.0,  999.0,  999.0,  999.0,  999.0,  999.0,  999.0,  999.0,  999.0
2007/10/13 06:00,    0.0,    0.0,    0.1,  999.0,    0.1,    0.2,    0.2,    0.3,    0.3,    0.4,    0.4,    0.2,    0.3,    0.2,   -0.0,    0.1,    0.2,    0.2,    0.2,    0.4,    0.2,    0.1,    0.1,    0.0,    0.0,    0.0,    0.1,    0.1,    0.1,    0.0,    0.1,    0.0,   -0.0,    0.1,    0.1,    0.0,    0.0,    0.0,    0.0,    0.1,  999.0,  999.0,  999.0,  999.0,  999.0,   -1.0,   -1.1,   -1.2,   -1.4,   -1.4,   -1.6,   -1.6,   -1.5,   -0.5,   -0.5,   -0.3,   -0.7,   -0.7,   -0.6,   -0.6,   -0.7,   -0.4,   -0.3,  999.0,  999.0,  999.0,  999.0,  999.0,  999.0,  999.0,  999.0,  999.0,  999.0,  999.0,  999.0,  999.0,  999.0,  999.0,  999.0,  999.0
2007/10/13 06:10,   -0.0,  999.0,  999.0,  999.0,    0.1,    0.1,  999.0,  999.0,  999.0,  999.0,   -0.3,  999.0,   -0.1,   -0.0,   -0.0,   -0.1,   -0.0,    0.1,    0.2,    0.2,  999.0,    0.1,    0.1,    0.0,    0.0,    0.0,    0.0,    0.0,    0.1,    0.1,    0.1,   -0.1,   -0.1,   -0.1,   -0.2,   -0.2,   -0.2,   -0.3,   -0.2,   -0.2,  999.0,  999.0,  999.0,  999.0,  999.0,  999.0,  999.0,  999.0,   -1.5,   -1.4,   -1.2,   -1.3,   -0.8,   -0.3,   -0.4,   -0.4,   -0.5,   -0.5,   -0.6,   -0.5,   -0.5,   -0.5,  999.0,  999.0,  999.0,  999.0,   -0.2,  999.0,  999.0,  999.0,   -0.0,  999.0,  999.0,  999.0,  999.0,  999.0,  999.0,  999.0,  999.0,  999.0
2007/10/13 06:20,    0.0,   -0.1,   -0.0,   -0.3,   -0.0,   -0.2,  999.0,  999.0,  999.0,  999.0,  999.0,  999.0,    0.2,    0.3,    0.2,    0.3,    0.1,    0.2,    0.2,    0.2,    0.0,    0.1,    0.1,    0.1,    0.0,   -0.0,    0.1,    0.1,    0.1,    0.1,    0.1,    0.0,   -0.1,   -0.1,   -0.1,   -0.2,   -0.1,   -0.2,   -0.2,  999.0,   -0.1,  999.0,  999.0,  999.0,  999.0,   -0.2,  999.0,  999.0,  999.0,  999.0,  999.0,   -1.1,   -0.5,   -0.3,   -0.5,   -0.5,   -0.5,   -0.9,   -0.6,   -0.6,   -0.5,  999.0,  999.0,  999.0,  999.0,  999.0,  999.0,  999.0,  999.0,  999.0,  999.0,  999.0,  999.0,  999.0,  999.0,  999.0,  999.0,  999.0,  999.0,  999.0
2007/10/13 06:30,    0.0,   -0.0,   -0.0,    0.0,    0.2,    0.2,    0.2,  999.0,  999.0,    0.3,    0.2,    0.1,    0.1,    0.2,    0.1,    0.2,    0.1,    0.1,    0.2,    0.3,  999.0,    0.1,    0.1,    0.1,    0.1,    0.1,    0.1,    0.3,    0.1,    0.1,    0.1,  999.0,   -0.0,   -0.0,   -0.0,   -0.1,   -0.1,   -0.0,  999.0,   -0.2,   -0.3,  999.0,  999.0,  999.0,    0.1,  999.0,  999.0,  999.0,  999.0,  999.0,  999.0,  999.0,  999.0,  999.0,   -0.5,   -0.5,   -0.5,  999.0,  999.0,  999.0,  999.0,  999.0,  999.0,  999.0,  999.0,  999.0,  999.0,  999.0,  999.0,  999.0,  999.0,  999.0,  999.0,  999.0,  999.0,  999.0,  999.0,  999.0,  999.0,  999.0
2007/10/13 06:40,    0.1,    0.0,    0.1,    0.0,   -0.1,   -0.1,   -0.1,   -0.1,   -0.1,   -0.1,   -0.0,   -0.0,   -0.1,    0.0,    0.1,    0.1,    0.1,    0.1,   -0.0,    0.1,    0.4,    0.5,    0.0,    0.0,    0.1,    0.1,    0.1,    0.2,    0.2,    0.2,    0.2,  999.0,    0.2,    0.2,    0.2,    0.1,    0.1,  999.0,    0.0,   -0.0,    0.1,  999.0,  999.0,   -0.1,   -0.2,  999.0,   -0.2,  999.0,   -0.5,  999.0,  999.0,  999.0,  999.0,  999.0,   -0.5,  999.0,   -0.5,  999.0,  999.0,  999.0,  999.0,  999.0,  999.0,  999.0,  999.0,  999.0,  999.0,  999.0,  999.0,  999.0,  999.0,  999.0,  999.0,  999.0,  999.0,  999.0,  999.0,  999.0,  999.0,  999.0
2007/10/13 06:50,   -0.0,   -0.0,   -0.1,   -0.1,   -0.2,   -0.1,   -0.1,   -0.2,   -0.2,   -0.2,   -0.2,   -0.2,   -0.1,   -0.1,   -0.1,   -0.0,    0.0,   -0.0,   -0.0,   -0.1,    0.1,    0.1,   -0.0,    0.0,  999.0,    0.0,    0.1,    0.2,    0.1,    0.3,    0.3,    0.0,    0.1,    0.2,    0.1,    0.1,    0.1,    0.1,    0.1,    0.2,    0.2,    0.1,  999.0,    0.0,  999.0,  999.0,  999.0,  999.0,  999.0,    0.2,   -0.1,   -0.1,   -0.2,   -0.2,   -0.0,  999.0,    0.1,  999.0,  999.0,  999.0,  999.0,  999.0,  999.0,  999.0,   -0.1,  999.0,  999.0,  999.0,  999.0,  999.0,  999.0,  999.0,  999.0,  999.0,  999.0,  999.0,  999.0,  999.0,  999.0,  999.0
2007/10/13 07:00,   -0.0,    0.0,  999.0,   -0.1,    0.0,    0.0,    0.0,   -0.1,    0.0,    0.0,    0.0,    0.0,    0.1,    0.2,    0.2,    0.1,    0.0,   -0.1,   -0.1,   -0.1,   -0.2,   -0.1,    0.0,    0.0,   -0.0,    0.0,    0.1,    0.0,    0.1,    0.2,    0.4,    0.1,    0.1,    0.1,    0.1,    0.0,   -0.0,    0.0,    0.0,    0.0,    0.0,   -0.1,  999.0,    0.1,    0.0,  999.0,  999.0,  999.0,  999.0,   -0.2,  999.0,   -0.1,   -0.1,    0.0,  999.0,  999.0,  999.0,  999.0,  999.0,  999.0,  999.0,  999.0,  999.0,  999.0,  999.0,  999.0,  999.0,  999.0,  999.0,  999.0,  999.0,  999.0,  999.0,  999.0,  999.0,  999.0,  999.0,  999.0,  999.0,  999.0
2007/10/13 07:10,    0.0,   -0.0,    0.1,   -0.1,  999.0,   -0.1,   -0.1,   -0.1,   -0.1,   -0.2,   -0.1,   -0.1,   -0.2,   -0.1,   -0.1,   -0.0,   -0.1,   -0.1,   -0.0,    0.0,    0.1,    0.2,    0.0,    0.0,   -0.0,    0.0,    0.2,    0.2,    0.1,    0.1,    0.3,    0.1,    0.1,   -0.0,    0.1,    0.1,    0.1,    0.0,  999.0,    0.0,   -0.0,    0.0,    0.1,  999.0,  999.0,  999.0,  999.0,  999.0,  999.0,  999.0,    0.1,    0.1,    0.1,    0.1,  999.0,  999.0,  999.0,  999.0,  999.0,  999.0,  999.0,  999.0,  999.0,  999.0,    0.2,  999.0,  999.0,  999.0,  999.0,  999.0,  999.0,  999.0,  999.0,  999.0,  999.0,  999.0,  999.0,  999.0,  999.0,  999.0
2007/10/13 07:20,    0.1,    0.0,   -0.0,    0.0,   -0.1,   -0.1,   -0.0,   -0.2,   -0.2,   -0.1,   -0.1,   -0.1,   -0.2,   -0.1,   -0.1,    0.0,    0.1,    0.1,    0.1,    0.2,    0.2,    0.1,    0.0,    0.0,    0.0,   -0.0,   -0.2,    0.2,    0.1,    0.2,    0.2,    0.2,    0.1,    0.2,    0.2,    0.2,    0.1,  999.0,  999.0,    0.1,    0.2,    0.1,    0.1,  999.0,  999.0,  999.0,  999.0,    0.3,  999.0,  999.0,  999.0,  999.0,    0.3,    0.1,  999.0,  999.0,  999.0,  999.0,  999.0,  999.0,  999.0,  999.0,  999.0,  999.0,  999.0,   -0.0,  999.0,  999.0,  999.0,  999.0,  999.0,  999.0,  999.0,  999.0,  999.0,  999.0,  999.0,  999.0,  999.0,  999.0
2007/10/13 07:30,    0.1,   -0.1,    0.1,    0.1,    0.0,    0.0,   -0.1,   -0.1,   -0.1,   -0.0,   -0.0,   -0.1,   -0.1,   -0.1,   -0.1,   -0.0,    0.0,   -0.0,   -0.0,   -0.1,   -0.0,   -0.0,    0.0,    0.0,  999.0,    0.0,    0.0,   -0.0,    0.1,    0.0,   -0.0,   -0.0,   -0.0,   -0.0,    0.0,   -0.1,  999.0,  999.0,  999.0,    0.1,    0.1,   -0.1,    0.0,    0.1,  999.0,  999.0,  999.0,    0.2,  999.0,  999.0,  999.0,  999.0,  999.0,  999.0,  999.0,  999.0,  999.0,  999.0,  999.0,  999.0,  999.0,  999.0,  999.0,  999.0,  999.0,  999.0,  999.0,  999.0,  999.0,  999.0,  999.0,  999.0,  999.0,  999.0,  999.0,  999.0,  999.0,  999.0,  999.0,  999.0
2007/10/13 07:40,   -0.0,    0.0,   -0.0,   -0.0,   -0.1,   -0.1,   -0.2,   -0.1,   -0.2,   -0.1,   -0.1,   -0.1,   -0.2,   -0.2,   -0.1,   -0.0,   -0.0,   -0.0,   -0.0,    0.0,   -0.0,   -0.0,   -0.0,    0.0,  999.0,   -0.0,    0.0,    0.0,    0.1,    0.1,   -0.0,    0.0,    0.0,    0.0,   -0.0,   -0.0,  999.0,  999.0,  999.0,  999.0,   -0.0,   -0.0,   -0.1,  999.0,  999.0,  999.0,    0.2,    0.1,  999.0,   -0.0,  999.0,  999.0,  999.0,  999.0,    0.3,    0.3,    0.5,  999.0,  999.0,  999.0,  999.0,  999.0,  999.0,  999.0,  999.0,  999.0,  999.0,  999.0,  999.0,  999.0,  999.0,  999.0,  999.0,  999.0,  999.0,  999.0,  999.0,    0.2,    0.2,  999.0
2007/10/13 07:50,   -0.0,    0.0,    0.0,    0.1,    0.1,   -0.0,  999.0,   -0.0,   -0.0,    0.0,   -0.0,   -0.0,   -0.0,    0.0,    0.1,    0.1,    0.1,    0.1,    0.1,    0.0,    0.1,    0.0,    0.0,   -0.0,  999.0,    0.0,    0.1,    0.1,    0.1,    0.1,    0.0,    0.1,    0.1,    0.2,    0.2,    0.2,    0.1,  999.0,  999.0,  999.0,  999.0,    0.2,    0.2,    0.1,    0.1,  999.0,    0.1,  999.0,  999.0,  999.0,  999.0,  999.0,  999.0,  999.0,  999.0,    0.3,    0.3,    0.3,    0.3,  999.0,  999.0,  999.0,  999.0,  999.0,    0.4,  999.0,  999.0,  999.0,  999.0,  999.0,  999.0,  999.0,  999.0,  999.0,  999.0,  999.0,  999.0,  999.0,  999.0,  999.0
2007/10/13 08:00,    0.0,    0.0,   -0.0,    0.0,    0.1,   -0.1,   -0.1,   -0.0,    0.0,   -0.0,   -0.1,   -0.1,   -0.1,   -0.1,   -0.1,   -0.0,    0.1,    0.1,    0.0,    0.1,    0.1,    0.1,   -0.0,    0.0,    0.0,   -0.1,   -0.1,   -0.1,   -0.0,    0.0,   -0.0,    0.0,    0.0,    0.1,    0.1,    0.3,    0.2,    0.2,  999.0,  999.0,   -0.1,    0.1,    0.2,    0.1,    0.1,    0.2,   -0.1,    0.0,   -0.0,  999.0,   -0.6,   -0.4,   -0.3,   -0.5,   -0.5,   -0.5,   -0.3,   -0.2,   -0.1,   -0.0,    0.1,  999.0,  999.0,  999.0,  999.0,  999.0,  999.0,  999.0,  999.0,  999.0,  999.0,  999.0,  999.0,  999.0,  999.0,  999.0,  999.0,  999.0,  999.0,  999.0
2007/10/13 08:10,    0.0,    0.0,    0.0,   -0.0,   -0.1,   -0.2,   -0.1,   -0.1,   -0.1,   -0.1,   -0.2,   -0.2,   -0.2,   -0.2,   -0.1,    0.0,    0.0,    0.3,    0.1,    0.2,    0.2,    0.1,    0.1,    0.0,    0.0,    0.1,    0.2,    0.2,    0.2,    0.1,    0.1,   -0.0,   -0.0,   -0.1,   -0.1,   -0.0,   -0.1,    0.1,  999.0,  999.0,  999.0,  999.0,   -0.1,   -0.0,    0.3,    0.1,  999.0,  999.0,  999.0,  999.0,  999.0,   -0.1,   -0.2,   -0.3,   -0.5,   -0.5,   -0.5,   -0.3,   -0.2,   -0.0,   -0.0,  999.0,  999.0,  999.0,    0.0,  999.0,  999.0,  999.0,  999.0,  999.0,  999.0,  999.0,  999.0,  999.0,  999.0,  999.0,  999.0,  999.0,  999.0,  999.0
2007/10/13 08:20,   -0.0,    0.0,   -0.0,   -0.0,   -0.1,   -0.2,   -0.2,   -0.1,   -0.2,   -0.2,   -0.2,   -0.3,   -0.3,   -0.3,   -0.2,   -0.1,   -0.1,   -0.1,   -0.0,   -0.1,   -0.1,   -0.0,   -0.0,    0.0,    0.0,    0.0,    0.1,    0.2,    0.2,    0.2,    0.3,    0.2,    0.1,    0.1,    0.1,    0.2,    0.2,    0.3,    0.3,  999.0,    0.0,  999.0,   -0.2,   -0.3,   -0.4,   -0.5,   -0.3,   -0.3,   -0.2,  999.0,    0.1,  999.0,   -0.0,  999.0,  999.0,  999.0,  999.0,  999.0,  999.0,    0.1,  999.0,  999.0,  999.0,  999.0,  999.0,  999.0,  999.0,  999.0,  999.0,  999.0,  999.0,  999.0,  999.0,  999.0,  999.0,  999.0,  999.0,  999.0,  999.0,  999.0
2007/10/13 08:30,   -0.0,  999.0,  999.0,  999.0,   -0.1,   -0.1,   -0.1,   -0.2,   -0.2,   -0.1,   -0.1,   -0.1,   -0.1,   -0.1,   -0.1,   -0.1,   -0.1,   -0.1,   -0.1,   -0.1,   -0.1,    0.0,   -0.0,    0.0,   -0.0,    0.0,    0.2,    0.2,    0.2,    0.3,    0.2,    0.1,    0.1,    0.0,    0.0,    0.0,    0.2,    0.2,    0.1,    0.0,   -0.0,   -0.1,   -0.1,   -0.2,   -0.3,   -0.3,   -0.2,   -0.3,  999.0,  999.0,   -0.0,   -0.0,  999.0,  999.0,  999.0,   -0.2,   -0.3,  999.0,  999.0,   -0.2,  999.0,  999.0,  999.0,  999.0,  999.0,  999.0,  999.0,  999.0,  999.0,  999.0,  999.0,  999.0,  999.0,  999.0,  999.0,  999.0,  999.0,  999.0,  999.0,  999.0
2007/10/13 08:40,   -0.0,   -0.0,   -0.0,   -0.1,   -0.0,  999.0,   -0.1,   -0.1,   -0.1,   -0.1,   -0.0,   -0.1,   -0.2,   -0.2,   -0.1,   -0.2,   -0.1,   -0.1,   -0.1,   -0.1,   -0.0,    0.1,    0.0,    0.0,    0.0,    0.1,    0.2,    0.2,    0.2,    0.2,    0.2,    0.1,    0.0,    0.0,    0.0,    0.0,    0.0,   -0.1,   -0.2,   -0.1,   -0.1,   -0.2,   -0.3,   -0.4,  999.0,  999.0,  999.0,  999.0,   -0.5,  999.0,   -0.9,  999.0,  999.0,  999.0,  999.0,   -0.8,   -0.4,   -0.5,  999.0,   -0.3,  999.0,  999.0,  999.0,  999.0,  999.0,  999.0,  999.0,  999.0,  999.0,  999.0,  999.0,  999.0,  999.0,  999.0,  999.0,  999.0,  999.0,  999.0,  999.0,  999.0
2007/10/13 08:50,   -0.0,   -0.0,   -0.0,   -0.1,   -0.1,   -0.0,    0.0,    0.1,    0.1,    0.1,    0.1,    0.1,    0.1,    0.1,   -0.0,   -0.0,   -0.1,   -0.0,   -0.0,   -0.1,   -0.0,    0.1,    0.0,    0.0,    0.0,    0.1,    0.3,    0.3,    0.3,    0.3,    0.2,    0.2,    0.1,    0.1,    0.0,    0.0,    0.0,    0.1,    0.1,  999.0,   -0.5,   -0.6,   -1.1,   -1.3,   -1.8,   -1.7,   -1.6,   -1.6,   -1.7,   -1.7,   -1.6,   -1.7,   -1.6,   -1.7,   -1.5,   -1.4,   -1.2,   -1.1,   -0.9,   -0.7,   -0.8,  999.0,  999.0,  999.0,  999.0,  999.0,  999.0,  999.0,  999.0,  999.0,  999.0,  999.0,  999.0,  999.0,  999.0,  999.0,  999.0,  999.0,  999.0,  999.0
2007/10/13 09:00,    0.0,   -0.0,   -0.1,   -0.2,   -0.2,   -0.2,   -0.0,   -0.0,   -0.1,   -0.1,   -0.2,   -0.2,   -0.1,   -0.1,    0.0,    0.2,    0.1,    0.1,   -0.0,   -0.0,   -0.1,   -0.0,    0.0,    0.0,    0.0,    0.1,    0.1,    0.1,    0.0,    0.0,   -0.0,   -0.0,   -0.1,   -0.1,    0.1,    0.1,    0.2,   -0.4,   -0.5,   -1.1,   -1.3,   -1.2,   -1.2,   -1.3,   -1.3,   -1.4,   -1.4,   -1.4,   -1.5,   -1.5,   -1.5,   -1.5,   -1.5,   -1.4,   -1.4,   -1.3,   -1.2,   -1.1,   -1.1,   -1.0,   -0.8,   -0.6,   -0.5,   -0.5,  999.0,  999.0,  999.0,  999.0,  999.0,  999.0,  999.0,  999.0,  999.0,  999.0,  999.0,  999.0,  999.0,  999.0,  999.0,  999.0
2007/10/13 09:10,   -0.0,   -0.0,   -0.0,   -0.1,   -0.1,   -0.1,   -0.1,   -0.2,   -0.3,   -0.3,   -0.2,   -0.2,   -0.2,   -0.2,   -0.0,    0.0,   -0.0,   -0.1,    0.0,    0.0,    0.1,    0.2,    0.1,    0.0,    0.0,    0.1,    0.2,    0.2,    0.3,    0.3,    0.3,    0.2,    0.1,    0.1,    0.2,    0.1,    0.1,    0.1,    0.1,   -0.7,   -0.5,   -0.6,   -0.9,   -1.0,   -1.0,   -1.0,   -1.0,   -1.0,   -1.0,   -1.0,   -1.0,   -1.0,   -1.0,   -1.0,   -1.0,   -1.0,   -0.9,   -0.9,   -0.8,   -0.8,   -0.7,   -0.5,   -0.4,   -0.3,  999.0,  999.0,  999.0,  999.0,  999.0,  999.0,  999.0,  999.0,  999.0,  999.0,  999.0,  999.0,  999.0,  999.0,  999.0,  999.0
2007/10/13 09:20,   -0.0,   -0.0,   -0.1,   -0.0,   -0.0,   -0.0,   -0.0,   -0.1,   -0.2,   -0.2,   -0.1,   -0.1,   -0.1,    0.1,    0.2,    0.2,    0.2,    0.1,    0.1,    0.1,    0.2,    0.1,    0.1,    0.0,    0.0,    0.1,   -0.0,    0.1,    0.0,    0.1,    0.1,    0.1,    0.1,    0.1,    0.1,    0.1,    0.0,    0.1,  999.0,   -0.2,   -0.1,   -0.4,   -0.6,   -0.7,   -0.8,   -0.8,   -0.8,   -0.8,   -0.7,   -0.8,   -0.8,   -0.9,   -0.8,   -0.8,   -0.8,   -0.8,   -0.7,   -0.6,   -0.6,   -0.5,   -0.3,   -0.3,   -0.2,   -0.0,  999.0,  999.0,  999.0,  999.0,  999.0,  999.0,  999.0,  999.0,  999.0,  999.0,  999.0,  999.0,  999.0,  999.0,  999.0,  999.0
2007/10/13 09:30,   -0.0,    0.0,   -0.0,   -0.1,    0.0,    0.0,    0.2,    0.1,   -0.0,    0.1,    0.1,    0.1,    0.1,    0.2,    0.3,    0.3,    0.2,    0.1,    0.0,    0.0,    0.0,    0.1,    0.1,    0.1,    0.0,    0.0,    0.0,    0.1,    0.1,    0.1,    0.1,    0.2,    0.1,    0.2,    0.1,    0.1,    0.2,    0.2,  999.0,    0.1,    0.0,   -0.5,   -0.7,   -0.8,   -0.8,   -0.8,   -0.8,   -0.7,   -0.7,   -0.8,   -0.9,   -0.9,   -1.0,   -1.0,   -0.9,   -0.9,   -0.8,   -0.9,   -0.6,   -0.6,   -0.5,   -0.4,   -0.3,    0.0,  999.0,  999.0,  999.0,  999.0,  999.0,  999.0,  999.0,  999.0,  999.0,  999.0,  999.0,  999.0,  999.0,  999.0,  999.0,  999.0
2007/10/13 09:40,    0.0,   -0.0,   -0.1,   -0.1,   -0.1,   -0.1,    0.1,    0.1,    0.1,    0.1,    0.2,    0.2,    0.2,    0.2,    0.3,    0.4,    0.3,   -0.1,    0.0,    0.0,    0.0,    0.1,    0.0,    0.0,   -0.0,    0.0,    0.0,    0.1,    0.0,    0.0,    0.0,    0.0,    0.0,   -0.0,    0.1,    0.1,    0.1,    0.2,    0.1,   -0.0,    0.1,   -0.3,   -0.5,   -0.6,   -0.5,   -0.6,   -0.6,   -0.5,   -0.5,   -0.5,   -0.5,   -0.7,   -0.7,   -0.7,   -0.7,   -0.7,   -0.7,   -0.5,   -0.3,   -0.4,  999.0,  999.0,  999.0,  999.0,  999.0,  999.0,  999.0,  999.0,  999.0,  999.0,  999.0,  999.0,  999.0,  999.0,  999.0,  999.0,  999.0,  999.0,  999.0,  999.0
2007/10/13 09:50,   -0.0,   -0.0,   -0.0,   -0.0,   -0.0,   -0.0,   -0.1,   -0.2,   -0.2,    0.0,   -0.0,    0.0,    0.1,    0.1,    0.2,    0.3,    0.1,   -0.2,   -0.1,   -0.1,   -0.0,   -0.0,    0.0,    0.0,   -0.0,    0.1,    0.0,    0.2,    0.2,    0.2,    0.2,    0.3,    0.2,    0.2,    0.3,    0.2,    0.3,    0.2,    0.2,    0.2,    0.2,    0.1,   -0.6,   -0.6,   -0.7,   -0.7,   -0.7,   -0.7,   -0.8,   -0.7,   -0.7,   -0.7,   -0.8,   -0.8,   -0.8,   -0.7,   -0.6,   -0.6,   -0.5,   -0.3,   -0.1,  999.0,  999.0,  999.0,  999.0,  999.0,  999.0,  999.0,  999.0,  999.0,  999.0,  999.0,  999.0,  999.0,  999.0,  999.0,  999.0,  999.0,  999.0,  999.0
2007/10/13 10:00,    0.0,   -0.0,    0.1,    0.2,    0.1,    0.0,    0.2,    0.2,  999.0,    0.4,    0.3,    0.2,    0.2,    0.2,    0.2,    0.2,   -0.0,   -0.0,   -0.1,   -0.1,   -0.0,    0.1,    0.0,    0.1,   -0.0,    0.1,    0.1,    0.2,    0.2,    0.2,    0.2,    0.1,    0.1,    0.1,    0.1,    0.1,    0.1,    0.1,    0.1,    0.0,    0.1,   -0.0,   -0.5,   -0.5,   -0.5,   -0.4,   -0.5,   -0.6,   -0.6,   -0.5,   -0.6,   -0.6,   -0.6,   -0.5,   -0.5,   -0.4,   -0.5,   -0.4,   -0.2,   -0.2,   -0.0,  999.0,  999.0,  999.0,  999.0,  999.0,  999.0,  999.0,  999.0,  999.0,  999.0,  999.0,  999.0,  999.0,  999.0,  999.0,  999.0,  999.0,  999.0,  999.0
2007/10/13 10:10,   -0.0,   -0.0,    0.1,    0.3,    0.1,    0.2,    0.3,    0.4,    0.4,    0.5,    0.2,    0.2,    0.2,    0.2,    0.1,    0.1,   -0.1,   -0.1,   -0.1,   -0.1,   -0.0,   -0.0,    0.0,    0.0,    0.0,    0.1,    0.0,    0.2,    0.1,    0.1,    0.1,    0.0,    0.0,    0.1,    0.0,    0.0,    0.1,    0.0,    0.0,    0.0,   -0.0,   -0.2,   -0.1,   -0.7,   -1.0,   -0.9,   -1.0,   -0.9,   -0.9,   -0.9,   -0.8,   -0.8,   -0.7,   -0.7,   -0.5,   -0.3,   -0.4,   -0.6,   -0.4,   -0.2,  999.0,  999.0,  999.0,  999.0,  999.0,  999.0,  999.0,  999.0,  999.0,  999.0,  999.0,  999.0,  999.0,  999.0,  999.0,  999.0,  999.0,  999.0,  999.0,  999.0
2007/10/13 10:20,    0.0,   -0.0,    0.0,    0.1,    0.2,    0.1,    0.2,    0.4,    0.5,    0.5,    0.3,    0.2,    0.3,    0.3,    0.4,    0.1,    0.1,    0.1,    0.1,    0.2,    0.2,    0.1,    0.1,    0.1,    0.1,    0.3,    0.2,    0.2,    0.4,    0.3,    0.3,    0.3,    0.2,    0.2,    0.2,    0.2,    0.2,    0.2,    0.2,    0.2,    0.1,    0.0,   -0.0,   -0.3,   -0.7,   -0.7,   -0.4,   -0.6,   -0.5,   -0.4,   -0.4,   -0.5,   -0.4,   -0.4,   -0.3,   -0.3,   -0.4,   -0.4,   -0.4,   -0.2,   -0.1,  999.0,  999.0,  999.0,  999.0,  999.0,  999.0,  999.0,  999.0,  999.0,  999.0,  999.0,  999.0,  999.0,  999.0,  999.0,  999.0,  999.0,  999.0,  999.0
2007/10/13 10:30,   -0.0,    0.0,   -0.1,    0.1,    0.3,    0.2,    0.3,    0.3,    0.6,    0.2,   -0.0,    0.2,    0.1,    0.1,    0.1,    0.1,   -0.0,   -0.1,   -0.2,   -0.1,   -0.1,   -0.1,   -0.0,    0.0,    0.1,    0.1,    0.1,    0.0,    0.0,    0.1,    0.0,    0.0,    0.0,    0.0,    0.1,    0.1,    0.1,    0.2,    0.2,    0.3,    0.3,    0.2,    0.3,    0.5,  999.0,  999.0,   -0.4,   -0.3,   -0.2,   -0.3,   -0.2,   -0.2,   -0.4,   -0.4,  999.0,   -0.3,   -0.3,   -0.2,   -0.1,    0.1,  999.0,  999.0,  999.0,  999.0,  999.0,  999.0,  999.0,  999.0,  999.0,  999.0,  999.0,  999.0,  999.0,  999.0,  999.0,  999.0,  999.0,  999.0,  999.0,  999.0
2007/10/13 10:40,    0.0,   -0.0,   -0.1,   -0.0,    0.1,    0.1,    0.1,    0.1,    0.1,   -0.1,   -0.2,    0.0,   -0.0,    0.0,    0.1,    0.1,   -0.1,   -0.0,   -0.1,   -0.2,   -0.1,   -0.0,    0.1,    0.2,    0.1,    0.2,    0.3,    0.2,    0.3,    0.1,   -0.0,    0.0,    0.0,   -0.0,    0.1,    0.2,    0.2,    0.3,    0.1,    0.3,    0.2,    0.3,    0.2,    0.2,    0.3,  999.0,  999.0,    0.1,    0.2,    0.1,    0.1,  999.0,  999.0,  999.0,  999.0,  999.0,  999.0,  999.0,  999.0,  999.0,  999.0,  999.0,  999.0,  999.0,  999.0,  999.0,  999.0,  999.0,  999.0,  999.0,  999.0,  999.0,  999.0,  999.0,  999.0,  999.0,    0.3,  999.0,  999.0,  999.0
2007/10/13 10:50,    0.0,   -0.0,   -0.0,    0.0,   -0.1,    0.0,    0.1,    0.2,    0.1,    0.2,    0.1,    0.1,    0.1,    0.1,    0.1,    0.1,    0.1,    0.0,    0.0,    0.1,    0.1,   -0.1,   -0.1,   -0.0,    0.0,   -0.0,    0.0,    0.1,    0.0,    0.0,   -0.0,    0.0,   -0.0,    0.0,    0.1,    0.1,    0.1,    0.2,    0.1,    0.2,    0.1,    0.1,    0.1,    0.1,  999.0,  999.0,    0.3,  999.0,    0.1,  999.0,  999.0,  999.0,  999.0,  999.0,  999.0,  999.0,  999.0,  999.0,   -0.3,   -0.0,  999.0,   -0.1,  999.0,  999.0,  999.0,  999.0,  999.0,  999.0,  999.0,  999.0,  999.0,  999.0,  999.0,  999.0,  999.0,  999.0,  999.0,  999.0,  999.0,  999.0
2007/10/13 11:00,    0.0,   -0.0,   -0.2,   -0.1,   -0.0,   -0.0,    0.1,    0.0,   -0.0,    0.1,    0.0,   -0.1,   -0.0,    0.0,    0.1,    0.1,    0.1,    0.1,    0.1,    0.1,   -0.0,    0.0,   -0.0,   -0.0,   -0.0,   -0.1,   -0.1,   -0.1,   -0.1,    0.0,   -0.0,    0.0,   -0.0,    0.0,   -0.1,   -0.1,   -0.1,   -0.0,    0.1,    0.1,    0.1,    0.1,    0.1,    0.0,   -0.4,  999.0,   -0.3,  999.0,  999.0,  999.0,  999.0,  999.0,  999.0,  999.0,  999.0,  999.0,  999.0,  999.0,  999.0,  999.0,  999.0,  999.0,  999.0,  999.0,  999.0,  999.0,  999.0,  999.0,  999.0,  999.0,  999.0,  999.0,  999.0,  999.0,  999.0,  999.0,  999.0,  999.0,  999.0,  999.0
2007/10/13 11:10,   -0.1,   -0.1,    0.1,   -0.3,  999.0,    0.1,   -0.0,   -0.0,    0.1,   -0.1,   -0.2,   -0.1,   -0.3,   -0.1,   -0.1,   -0.2,   -0.1,   -0.1,   -0.1,   -0.1,   -0.1,   -0.0,   -0.0,    0.0,    0.1,    0.1,    0.1,    0.1,    0.1,   -0.0,  999.0,    0.0,    0.1,    0.0,    0.0,    0.2,   -0.2,   -0.1,   -0.1,   -0.0,   -0.0,   -0.1,   -0.1,   -0.3,   -0.7,   -0.8,   -0.4,   -0.4,   -0.2,   -0.2,    0.1,    0.1,   -0.0,  999.0,  999.0,  999.0,  999.0,  999.0,  999.0,    0.4,    0.3,  999.0,  999.0,  999.0,  999.0,  999.0,  999.0,  999.0,  999.0,  999.0,  999.0,  999.0,  999.0,  999.0,  999.0,  999.0,  999.0,  999.0,  999.0,  999.0
2007/10/13 11:20,   -0.0,   -0.0,    0.1,    0.1,    0.2,    0.2,    0.3,    0.2,    0.3,    0.4,    0.3,    0.2,    0.1,    0.1,   -0.1,   -0.1,    0.1,    0.1,    0.1,    0.1,    0.1,    0.2,    0.2,    0.2,    0.3,    0.3,    0.2,    0.3,    0.0,    0.0,    0.1,    0.0,    0.0,   -0.0,   -0.1,   -0.1,   -0.1,    0.0,   -0.1,   -0.0,   -0.0,   -0.1,   -0.2,   -0.6,   -0.8,   -0.8,   -0.6,   -0.5,   -0.5,    0.0,   -0.2,   -0.0,   -0.1,    0.0,  999.0,  999.0,  999.0,  999.0,  999.0,  999.0,    0.1,    0.2,  999.0,  999.0,  999.0,  999.0,  999.0,  999.0,  999.0,  999.0,  999.0,  999.0,  999.0,  999.0,  999.0,  999.0,  999.0,  999.0,  999.0,  999.0
2007/10/13 11:30,   -0.0,   -0.0,   -0.0,    0.0,   -0.0,    0.1,    0.1,    0.1,    0.0,    0.1,   -0.1,   -0.1,   -0.1,   -0.0,   -0.1,   -0.1,    0.1,   -0.1,   -0.2,   -0.0,    0.1,    0.2,    0.2,    0.2,    0.3,    0.3,    0.3,    0.3,    0.2,  999.0,    0.0,    0.0,    0.0,   -0.2,    0.1,   -0.0,   -0.0,    0.0,    0.0,   -0.0,   -0.0,   -0.2,   -0.2,   -0.3,   -0.7,   -0.8,   -0.7,  999.0,   -0.4,  999.0,  999.0,  999.0,   -0.1,   -0.1,  999.0,  999.0,  999.0,  999.0,  999.0,  999.0,  999.0,  999.0,  999.0,  999.0,  999.0,  999.0,  999.0,  999.0,  999.0,  999.0,  999.0,  999.0,  999.0,  999.0,  999.0,  999.0,  999.0,  999.0,  999.0,  999.0
2007/10/13 11:40,   -0.0,   -0.1,   -0.2,   -0.4,   -0.4,   -0.4,   -0.5,   -0.6,   -0.3,   -0.2,   -0.2,   -0.2,   -0.1,    0.0,   -0.0,   -0.0,   -0.0,   -0.1,   -0.1,    0.2,    0.1,    0.1,    0.1,    0.2,    0.2,    0.3,    0.2,    0.2,    0.1,    0.0,   -0.0,    0.0,   -0.0,   -0.1,    0.1,    0.2,    0.2,    0.1,    0.1,    0.0,    0.1,    0.1,    0.0,   -0.1,   -0.5,  999.0,  999.0,  999.0,  999.0,  999.0,  999.0,    0.0,    0.1,  999.0,  999.0,  999.0,  999.0,  999.0,  999.0,  999.0,  999.0,  999.0,  999.0,  999.0,  999.0,  999.0,  999.0,  999.0,  999.0,  999.0,  999.0,  999.0,  999.0,  999.0,  999.0,  999.0,  999.0,  999.0,  999.0,  999.0
2007/10/13 11:50,   -0.0,    0.0,    0.0,    0.1,    0.1,    0.1,    0.1,    0.0,    0.1,    0.2,   -0.0,   -0.3,   -0.1,    0.0,   -0.1,    0.1,   -0.2,    0.0,    0.1,   -0.0,    0.0,    0.1,    0.1,    0.1,    0.2,    0.2,    0.1,    0.1,    0.2,    0.1,   -0.0,   -0.0,    0.1,    0.0,    0.2,    0.1,    0.2,    0.2,    0.2,    0.1,    0.1,    0.1,    0.1,  999.0,  999.0,  999.0,  999.0,  999.0,  999.0,    0.3,  999.0,   -0.0,   -0.0,  999.0,  999.0,  999.0,  999.0,  999.0,  999.0,   -0.0,  999.0,  999.0,  999.0,    0.2,   -0.1,  999.0,  999.0,  999.0,  999.0,  999.0,  999.0,  999.0,  999.0,  999.0,  999.0,  999.0,  999.0,  999.0,  999.0,  999.0
2007/10/13 12:00,    0.0,   -0.1,   -0.1,   -0.0,    0.2,    0.0,   -0.0,   -0.1,   -0.1,   -0.1,   -0.1,   -0.1,   -0.0,   -0.1,   -0.1,    0.0,    0.1,    0.2,    0.1,    0.0,    0.0,    0.0,    0.1,    0.0,    0.1,   -0.0,   -0.0,   -0.0,    0.0,    0.0,    0.1,   -0.0,   -0.0,    0.0,    0.1,    0.1,    0.0,    0.1,    0.0,    0.0,    0.1,    0.1,    0.1,  999.0,  999.0,  999.0,  999.0,  999.0,  999.0,    0.1,  999.0,   -0.3,   -0.1,   -0.1,  999.0,  999.0,  999.0,  999.0,  999.0,   -0.1,  999.0,  999.0,  999.0,  999.0,  999.0,  999.0,  999.0,  999.0,  999.0,  999.0,  999.0,  999.0,  999.0,  999.0,  999.0,  999.0,  999.0,  999.0,  999.0,  999.0
2007/10/13 12:10,    0.1,   -0.0,   -0.0,   -0.0,    0.1,    0.1,    0.1,    0.0,    0.0,   -0.0,    0.2,    0.1,    0.1,    0.1,    0.1,    0.1,    0.2,    0.2,    0.5,    0.2,    0.1,    0.1,    0.0,    0.1,    0.1,    0.1,    0.1,    0.1,    0.1,    0.0,    0.0,   -0.0,   -0.1,    0.1,    0.1,    0.1,   -0.0,    0.1,    0.1,    0.0,    0.1,    0.1,    0.0,  999.0,  999.0,  999.0,  999.0,  999.0,  999.0,    0.2,  999.0,  999.0,   -0.2,    0.2,  999.0,  999.0,  999.0,  999.0,   -0.0,    0.2,    0.1,  999.0,  999.0,  999.0,  999.0,  999.0,  999.0,  999.0,  999.0,  999.0,  999.0,  999.0,  999.0,  999.0,  999.0,  999.0,  999.0,  999.0,  999.0,  999.0
2007/10/13 12:20,   -0.0,   -0.0,   -0.1,   -0.1,   -0.0,   -0.1,   -0.1,   -0.1,   -0.1,    0.2,    0.2,    0.1,    0.1,    0.1,    0.0,    0.0,   -0.0,    0.1,    0.1,   -0.1,    0.0,    0.0,    0.1,    0.1,    0.1,    0.2,    0.2,    0.0,    0.0,    0.1,    0.0,   -0.0,    0.0,    0.1,    0.2,    0.4,    0.2,    0.2,    0.1,    0.2,    0.2,    0.2,    0.2,  999.0,  999.0,  999.0,  999.0,    0.3,   -0.2,    0.2,  999.0,  999.0,    0.2,  999.0,  999.0,  999.0,  999.0,  999.0,    0.1,    0.2,    0.2,  999.0,  999.0,  999.0,  999.0,  999.0,  999.0,  999.0,  999.0,  999.0,  999.0,  999.0,  999.0,  999.0,  999.0,  999.0,  999.0,  999.0,  999.0,  999.0
2007/10/13 12:30,   -0.0,   -0.1,   -0.1,   -0.0,   -0.1,   -0.1,    0.0,    0.1,    0.2,    0.1,    0.2,    0.3,    0.3,    0.2,    0.2,    0.3,   -0.1,    0.0,   -0.0,   -0.0,    0.1,    0.1,    0.1,    0.1,    0.0,    0.1,    0.1,    0.0,   -0.0,   -0.0,    0.0,    0.0,    0.0,  999.0,    0.2,    0.1,    0.2,    0.2,    0.0,    0.0,    0.1,    0.2,    0.0,   -0.6,  999.0,  999.0,  999.0,  999.0,  999.0,    0.1,  999.0,  999.0,    0.3,    0.3,  999.0,  999.0,  999.0,  999.0,  999.0,    0.4,    0.3,    0.4,  999.0,  999.0,  999.0,  999.0,  999.0,  999.0,  999.0,  999.0,  999.0,  999.0,  999.0,  999.0,  999.0,  999.0,  999.0,  999.0,  999.0,  999.0
2007/10/13 12:40,   -0.0,   -0.1,   -0.4,   -0.3,   -0.4,   -0.2,   -0.1,   -0.1,   -0.2,   -0.4,   -0.3,   -0.2,   -0.1,   -0.1,    0.1,    0.1,   -0.1,   -0.2,   -0.1,   -0.1,   -0.1,   -0.1,   -0.1,    0.0,   -0.1,   -0.0,    0.0,   -0.0,   -0.0,   -0.0,   -0.1,   -0.0,   -0.1,    0.2,    0.2,    0.1,    0.2,    0.1,    0.1,    0.1,    0.2,   -0.0,   -0.6,   -0.7,   -0.6,   -0.7,   -0.4,   -0.2,   -0.3,  999.0,  999.0,  999.0,  999.0,  999.0,  999.0,  999.0,  999.0,  999.0,    0.3,    0.4,    0.5,  999.0,  999.0,  999.0,  999.0,  999.0,  999.0,  999.0,  999.0,  999.0,  999.0,  999.0,  999.0,  999.0,  999.0,  999.0,  999.0,  999.0,  999.0,  999.0
2007/10/13 12:50,   -0.2,   -0.1,   -0.1,   -0.2,   -0.3,   -0.4,   -0.5,   -0.3,   -0.2,   -0.3,   -0.3,   -0.2,   -0.1,   -0.1,   -0.1,   -0.1,   -0.1,   -0.0,   -0.0,    0.1,    0.1,    0.1,    0.1,    0.1,    0.0,   -0.0,   -0.0,    0.1,    0.0,  999.0,    0.0,   -0.1,    0.1,    0.1,    0.1,    0.1,    0.1,    0.1,    0.1,    0.1,    0.0,   -0.3,   -0.8,   -0.8,   -0.7,   -0.7,   -0.6,   -0.5,   -0.2,   -0.0,   -0.3,   -0.2,  999.0,  999.0,  999.0,  999.0,  999.0,  999.0,  999.0,  999.0,  999.0,  999.0,  999.0,  999.0,  999.0,  999.0,  999.0,  999.0,  999.0,  999.0,  999.0,  999.0,  999.0,  999.0,  999.0,  999.0,  999.0,  999.0,  999.0,  999.0
2007/10/13 13:00,    0.0,   -0.0,   -0.1,   -0.3,   -0.3,   -0.4,   -0.5,   -0.2,   -0.1,   -0.1,   -0.0,    0.0,    0.1,    0.0,    0.0,   -0.0,   -0.1,   -0.0,   -0.0,    0.0,    0.0,   -0.1,   -0.0,   -0.0,    0.0,    0.0,   -0.0,   -0.1,  999.0,   -0.0,    0.0,  999.0,    0.0,   -0.2,   -0.2,   -0.1,   -0.1,   -0.1,    0.0,   -0.0,   -0.2,   -0.5,   -0.6,   -0.8,   -0.9,   -0.9,   -0.8,   -0.7,   -0.6,   -0.4,   -0.5,   -0.4,   -0.2,  999.0,  999.0,  999.0,  999.0,  999.0,  999.0,  999.0,  999.0,  999.0,  999.0,  999.0,  999.0,  999.0,  999.0,  999.0,  999.0,  999.0,  999.0,  999.0,  999.0,  999.0,  999.0,  999.0,  999.0,  999.0,  999.0,  999.0
2007/10/13 13:10,   -0.0,   -0.0,   -0.1,    0.0,    0.0,    0.1,    0.1,   -0.0,   -0.1,   -0.1,   -0.1,    0.0,    0.0,    0.0,    0.1,    0.1,    0.0,    0.1,   -0.0,   -0.1,   -0.0,    0.0,    0.2,    0.1,    0.0,    0.3,    0.2,    0.1,    0.1,    0.0,    0.0,   -0.0,   -0.0,   -0.1,   -0.2,   -0.1,   -0.1,   -0.0,    0.0,    0.1,   -0.0,   -0.0,   -0.3,   -0.7,   -0.6,   -0.6,   -0.5,   -0.5,  999.0,   -0.1,  999.0,  999.0,  999.0,  999.0,  999.0,  999.0,  999.0,  999.0,  999.0,  999.0,  999.0,  999.0,  999.0,  999.0,  999.0,  999.0,  999.0,  999.0,  999.0,  999.0,  999.0,  999.0,  999.0,  999.0,  999.0,  999.0,  999.0,  999.0,  999.0,  999.0
2007/10/13 13:20,    0.0,    0.1,    0.1,    0.1,   -0.1,    0.0,    0.1,    0.1,    0.2,    0.4,    0.6,    0.3,    0.1,    0.1,    0.0,    0.1,    0.1,    0.1,    0.2,   -0.1,    0.0,   -0.0,    0.2,    0.1,    0.1,    0.2,    0.2,    0.2,    0.2,    0.0,    0.1,    0.0,   -0.0,   -0.0,   -0.0,   -0.0,    0.1,    0.0,    0.1,    0.1,    0.1,    0.0,   -0.1,   -0.6,   -0.4,   -0.3,  999.0,  999.0,  999.0,  999.0,  999.0,  999.0,  999.0,  999.0,  999.0,  999.0,  999.0,  999.0,  999.0,  999.0,  999.0,  999.0,  999.0,  999.0,  999.0,  999.0,  999.0,  999.0,  999.0,  999.0,  999.0,  999.0,  999.0,  999.0,  999.0,  999.0,  999.0,  999.0,  999.0,  999.0
2007/10/13 13:30,   -0.0,    0.0,    0.1,    0.0,    0.1,    0.1,   -0.1,   -0.2,    0.0,    0.1,    0.2,    0.5,    0.6,    0.7,    0.5,    0.4,    0.2,   -0.0,   -0.0,   -0.0,    0.0,    0.0,    0.0,   -0.0,    0.0,    0.1,    0.1,    0.1,    0.1,    0.0,   -0.0,   -0.0,   -0.0,   -0.2,   -0.1,   -0.1,    0.0,    0.1,    0.1,    0.1,    0.1,    0.0,    0.1,  999.0,  999.0,  999.0,  999.0,  999.0,  999.0,  999.0,  999.0,  999.0,  999.0,  999.0,  999.0,  999.0,  999.0,  999.0,  999.0,  999.0,  999.0,  999.0,  999.0,  999.0,  999.0,  999.0,  999.0,  999.0,  999.0,  999.0,  999.0,  999.0,  999.0,  999.0,  999.0,  999.0,  999.0,  999.0,  999.0,  999.0
2007/10/13 13:40,    0.0,    0.0,    0.0,    0.1,    0.2,    0.1,    0.1,   -0.1,   -0.1,   -0.1,    0.1,    0.2,    0.3,    0.1,    0.1,    0.1,    0.1,   -0.0,    0.0,    0.1,    0.0,    0.0,    0.1,    0.0,    0.1,    0.1,    0.1,    0.1,    0.1,    0.0,    0.1,    0.1,    0.2,    0.2,    0.3,    0.2,    0.1,    0.2,    0.2,    0.1,    0.1,    0.1,    0.0,  999.0,  999.0,  999.0,  999.0,  999.0,  999.0,  999.0,  999.0,    0.2,    0.2,  999.0,  999.0,  999.0,    0.1,  999.0,    0.2,  999.0,  999.0,  999.0,  999.0,  999.0,  999.0,  999.0,  999.0,  999.0,  999.0,  999.0,  999.0,  999.0,  999.0,  999.0,  999.0,  999.0,  999.0,  999.0,  999.0,  999.0
2007/10/13 13:50,   -0.0,   -0.0,   -0.0,    0.1,    0.0,   -0.1,   -0.1,   -0.1,   -0.1,   -0.0,   -0.1,   -0.3,   -0.2,   -0.2,   -0.3,   -0.2,   -0.1,    0.1,   -0.0,   -0.0,   -0.0,   -0.0,    0.0,   -0.1,    0.0,   -0.0,    0.0,    0.0,    0.0,    0.1,   -0.0,   -0.0,   -0.0,    0.0,    0.1,   -0.0,   -0.0,   -0.0,   -0.0,    0.0,   -0.0,   -0.1,   -0.4,   -0.4,  999.0,  999.0,  999.0,   -0.7,   -0.5,   -0.8,  999.0,   -0.3,  999.0,  999.0,  999.0,  999.0,   -0.3,    0.1,    0.1,    0.3,  999.0,  999.0,  999.0,  999.0,  999.0,  999.0,  999.0,  999.0,  999.0,  999.0,  999.0,  999.0,  999.0,  999.0,  999.0,  999.0,  999.0,  999.0,  999.0,  999.0
2007/10/13 14:00,   -0.0,   -0.0,    0.0,   -0.1,   -0.1,   -0.2,   -0.3,   -0.1,   -0.1,    0.0,    0.1,    0.2,    0.2,    0.2,    0.0,   -0.1,   -0.0,   -0.0,   -0.0,   -0.0,    0.1,    0.1,    0.1,    0.1,    0.0,    0.0,    0.1,    0.1,    0.2,    0.2,    0.2,    0.2,    0.2,    0.1,    0.2,    0.0,    0.2,    0.2,    0.0,   -0.2,   -0.4,   -0.7,   -1.0,   -1.1,   -1.2,   -1.2,   -1.2,   -1.1,   -1.1,   -1.0,   -1.1,   -0.9,   -1.0,   -0.9,   -1.0,   -0.9,   -0.9,   -0.7,   -0.7,   -0.9,   -0.7,   -0.7,   -0.8,  999.0,   -0.7,   -0.7,   -0.6,   -0.8,   -0.6,   -0.5,   -0.3,  999.0,  999.0,  999.0,  999.0,  999.0,  999.0,  999.0,  999.0,  999.0
2007/10/13 14:10,    0.0,   -0.1,   -0.1,   -0.3,   -0.4,   -0.4,   -0.2,   -0.0,   -0.0,    0.0,    0.1,   -0.0,    0.1,   -0.0,    0.0,   -0.0,   -0.0,   -0.0,   -0.0,   -0.1,   -0.1,   -0.0,   -0.0,    0.0,   -0.0,    0.0,    0.1,    0.1,    0.1,    0.1,    0.1,    0.1,    0.2,    0.1,    0.1,   -0.5,   -0.0,   -0.2,   -1.0,   -1.1,   -1.1,   -1.2,   -1.2,   -1.2,   -1.1,   -1.1,   -1.2,   -1.2,   -1.2,   -1.2,   -1.1,   -1.0,   -1.0,   -0.8,   -0.6,   -0.6,  999.0,  999.0,  999.0,  999.0,  999.0,  999.0,  999.0,  999.0,  999.0,  999.0,  999.0,  999.0,  999.0,  999.0,  999.0,  999.0,  999.0,  999.0,  999.0,  999.0,  999.0,  999.0,  999.0,  999.0
2007/10/13 14:20,    0.0,   -0.1,   -0.2,   -0.2,   -0.1,    0.0,    0.1,    0.0,   -0.0,    0.0,    0.0,   -0.0,   -0.0,    0.0,   -0.0,   -0.0,    0.0,   -0.0,    0.2,    0.1,    0.0,   -0.0,   -0.0,    0.0,   -0.1,   -0.1,   -0.0,   -0.0,    0.1,    0.2,   -0.1,   -0.2,   -0.3,   -0.2,   -0.9,   -1.1,   -1.1,   -1.2,   -1.3,   -1.3,   -1.3,   -1.3,   -1.2,   -1.2,   -1.2,   -1.1,   -1.1,   -1.1,   -1.1,   -1.1,   -1.1,   -1.0,   -1.0,   -0.9,   -0.8,   -0.6,   -0.6,   -0.5,   -0.6,   -0.6,   -0.5,   -0.4,   -0.4,   -0.3,  999.0,  999.0,  999.0,  999.0,  999.0,  999.0,  999.0,  999.0,  999.0,  999.0,  999.0,  999.0,  999.0,  999.0,  999.0,  999.0
2007/10/13 14:30,   -0.0,   -0.0,   -0.0,    0.2,    0.2,   -0.0,   -0.2,   -0.2,   -0.1,   -0.1,   -0.1,   -0.1,    0.0,   -0.0,   -0.0,   -0.2,   -0.2,   -0.1,    0.0,    0.0,    0.1,    0.1,    0.1,    0.1,    0.2,   -0.1,    0.1,    0.1,    0.2,    0.3,   -0.0,   -0.2,   -0.1,   -0.5,   -0.9,   -1.0,   -1.1,   -1.2,   -1.2,   -1.2,   -1.2,   -1.2,   -1.2,   -1.1,   -1.0,   -1.0,   -1.0,   -0.9,   -0.9,   -0.8,   -0.7,   -0.7,   -0.6,   -0.5,   -0.6,   -0.6,   -0.6,   -0.4,   -0.5,   -0.4,   -0.3,   -0.3,  999.0,  999.0,  999.0,  999.0,  999.0,  999.0,  999.0,   -0.2,  999.0,  999.0,  999.0,  999.0,  999.0,  999.0,  999.0,  999.0,  999.0,  999.0
2007/10/13 14:40,    0.1,    0.2,    0.2,    0.1,    0.3,    0.2,    0.1,    0.0,    0.0,   -0.2,   -0.2,   -0.1,   -0.1,   -0.1,   -0.0,   -0.0,   -0.1,   -0.0,    0.1,    0.1,    0.2,    0.1,    0.1,    0.1,    0.1,    0.1,    0.4,    0.3,    0.4,    0.3,    0.2,   -0.2,   -0.5,   -0.9,   -1.0,   -1.0,   -1.0,   -1.1,   -1.1,   -1.2,   -1.2,   -1.2,   -1.1,   -1.0,   -0.9,   -0.9,   -0.8,   -0.8,   -0.7,   -0.7,   -0.5,   -0.5,   -0.5,   -0.5,   -0.4,   -0.4,   -0.3,   -0.2,   -0.3,   -0.1,   -0.1,  999.0,  999.0,  999.0,  999.0,  999.0,  999.0,  999.0,  999.0,  999.0,  999.0,  999.0,  999.0,  999.0,  999.0,  999.0,  999.0,  999.0,  999.0,  999.0
2007/10/13 14:50,   -0.0,    0.0,    0.1,    0.3,    0.8,    0.4,    0.4,   -0.0,  999.0,  999.0,   -0.1,   -0.1,   -0.0,    0.0,   -0.1,    0.0,   -0.0,   -0.1,   -0.1,   -0.1,   -0.1,   -0.0,    0.1,    0.1,    0.1,    0.2,   -0.0,   -0.0,    0.0,    0.1,   -0.2,   -0.4,   -0.4,   -0.8,   -0.9,   -1.0,   -1.2,   -1.3,   -1.2,   -1.1,   -1.1,   -1.2,   -1.1,   -1.1,   -0.9,   -0.9,   -0.8,   -0.8,   -0.7,   -0.6,   -0.5,   -0.4,   -0.4,   -0.4,   -0.4,   -0.4,   -0.3,   -0.1,  999.0,  999.0,  999.0,  999.0,  999.0,  999.0,  999.0,  999.0,  999.0,  999.0,  999.0,  999.0,  999.0,  999.0,  999.0,  999.0,  999.0,  999.0,  999.0,  999.0,  999.0,  999.0
2007/10/13 15:00,    0.0,    0.0,    0.0,    0.0,   -0.0,   -0.0,   -0.0,   -0.0,   -0.1,   -0.1,   -0.1,   -0.1,   -0.0,    0.0,   -0.0,   -0.1,   -0.1,    0.0,    0.0,    0.2,    0.1,    0.2,    0.2,    0.2,    0.1,    0.1,    0.1,    0.1,    0.1,    0.1,   -0.1,   -0.2,   -0.6,   -0.8,   -0.8,   -0.9,   -0.9,   -0.9,   -1.0,   -1.0,   -1.0,   -0.9,   -0.9,   -0.7,   -0.8,   -0.7,   -0.6,   -0.7,   -0.6,   -0.5,   -0.1,   -0.1,   -0.6,   -0.5,   -0.3,  999.0,   -0.3,   -0.2,  999.0,  999.0,  999.0,  999.0,  999.0,  999.0,  999.0,  999.0,  999.0,  999.0,  999.0,  999.0,  999.0,  999.0,  999.0,  999.0,  999.0,  999.0,  999.0,  999.0,  999.0,  999.0
2007/10/13 15:10,  999.0,    0.0,    0.0,    0.0,    0.1,    0.0,    0.0,   -0.0,   -0.1,   -0.2,   -0.1,    0.0,    0.0,    0.0,   -0.0,   -0.0,    0.0,    0.0,    0.0,   -0.0,    0.0,    0.1,    0.1,    0.1,    0.1,    0.2,    0.2,    0.3,    0.2,    0.2,    0.1,    0.1,   -0.4,   -0.4,   -0.2,   -0.3,   -0.3,   -0.5,   -0.7,   -0.7,   -0.7,   -0.9,   -0.9,   -1.0,   -1.0,   -1.1,   -1.0,   -0.9,   -0.9,   -0.6,   -0.5,   -0.4,   -0.5,   -0.3,   -0.2,   -0.3,   -0.1,   -0.2,   -0.0,    0.1,  999.0,  999.0,  999.0,  999.0,  999.0,  999.0,  999.0,  999.0,  999.0,  999.0,  999.0,  999.0,  999.0,  999.0,  999.0,  999.0,  999.0,  999.0,  999.0,  999.0
2007/10/13 15:20,    0.0,   -0.0,    0.0,   -0.0,   -0.0,    0.0,   -0.0,   -0.2,   -0.2,   -0.2,   -0.1,   -0.1,   -0.1,    0.0,   -0.0,    0.0,    0.0,    0.0,    0.1,    0.0,   -0.0,    0.0,    0.1,    0.0,    0.2,    0.3,    0.4,    0.4,    0.2,    0.2,    0.2,    0.2,   -0.3,   -0.7,   -0.7,   -0.7,   -0.9,   -1.1,   -1.1,   -1.0,   -1.0,   -1.1,   -1.1,   -1.1,   -1.1,   -1.1,   -0.9,   -0.9,   -0.7,   -0.6,   -0.5,   -0.6,   -0.5,   -0.4,   -0.2,   -0.2,   -0.2,   -0.1,    0.0,  999.0,  999.0,  999.0,  999.0,  999.0,  999.0,  999.0,  999.0,  999.0,  999.0,  999.0,  999.0,  999.0,  999.0,  999.0,  999.0,  999.0,  999.0,  999.0,  999.0,  999.0
2007/10/13 15:30,  999.0,    0.0,  999.0,    0.0,    0.1,    0.1,   -0.1,   -0.1,   -0.1,   -0.0,   -0.1,   -0.1,   -0.0,    0.0,   -0.1,   -0.1,   -0.1,   -0.2,   -0.2,   -0.2,   -0.2,   -0.0,    0.0,    0.1,    0.2,    0.2,    0.1,    0.1,    0.0,   -0.1,   -0.1,   -0.2,   -0.6,   -1.0,   -1.0,   -1.1,   -1.0,   -1.1,   -1.2,   -1.2,   -1.3,   -1.4,   -1.3,   -1.4,   -1.4,   -1.3,   -1.3,   -1.1,   -1.0,   -0.9,   -0.8,   -0.6,   -0.5,   -0.4,   -0.2,   -0.2,   -0.2,   -0.2,   -0.2,   -0.3,   -0.0,  999.0,  999.0,  999.0,  999.0,  999.0,  999.0,  999.0,  999.0,  999.0,  999.0,  999.0,  999.0,  999.0,  999.0,  999.0,  999.0,  999.0,  999.0,  999.0
2007/10/13 15:40,    0.0,    0.0,    0.0,    0.0,    0.0,    0.0,   -0.0,   -0.1,   -0.1,   -0.1,   -0.0,   -0.1,   -0.1,   -0.1,   -0.0,   -0.0,   -0.1,   -0.0,   -0.0,   -0.0,   -0.0,   -0.0,    0.0,    0.1,    0.1,    0.2,    0.1,    0.1,   -0.0,   -0.2,   -0.5,   -0.9,   -1.1,   -1.2,   -1.3,   -1.3,   -1.3,   -1.3,   -1.3,   -1.3,   -1.3,   -1.2,   -1.2,   -1.2,   -1.1,   -1.0,   -0.9,   -0.9,   -0.8,   -0.7,   -0.7,   -0.6,   -0.6,   -0.6,   -0.5,   -0.4,   -0.4,   -0.4,   -0.3,   -0.2,   -0.1,  999.0,  999.0,  999.0,  999.0,  999.0,  999.0,  999.0,  999.0,  999.0,  999.0,  999.0,  999.0,  999.0,  999.0,  999.0,  999.0,  999.0,  999.0,  999.0
2007/10/13 15:50,  999.0,    0.0,    0.0,   -0.0,   -0.0,   -0.0,   -0.1,   -0.2,   -0.1,   -0.1,   -0.1,   -0.3,   -0.1,   -0.1,   -0.1,   -0.1,   -0.1,   -0.2,   -0.1,    0.1,   -0.0,   -0.0,    0.0,   -0.0,   -0.0,    0.0,    0.1,    0.1,    0.0,   -0.2,   -0.5,   -0.9,   -1.0,   -1.1,   -1.1,   -1.2,   -1.3,   -1.3,   -1.3,   -1.4,   -1.3,   -1.3,   -1.2,   -1.2,   -1.1,   -1.1,   -1.0,   -1.0,   -1.0,   -0.9,   -0.8,   -0.8,   -0.7,   -0.7,   -0.6,   -0.6,   -0.6,   -0.5,   -0.4,   -0.3,   -0.2,    0.1,  999.0,  999.0,  999.0,  999.0,  999.0,  999.0,  999.0,  999.0,  999.0,  999.0,  999.0,  999.0,  999.0,  999.0,  999.0,  999.0,  999.0,  999.0
2007/10/13 16:00,  999.0,   -0.0,   -0.0,    0.0,   -0.0,   -0.1,   -0.2,   -0.1,   -0.1,   -0.1,   -0.1,   -0.1,   -0.1,   -0.1,   -0.0,    0.0,    0.1,    0.2,    0.1,  999.0,    0.1,    0.1,    0.0,    0.0,    0.0,    0.0,   -0.0,   -0.2,   -0.6,   -0.7,   -0.9,   -1.2,   -1.2,   -1.3,   -1.4,   -1.4,   -1.3,   -1.3,   -1.2,   -1.2,   -1.2,   -1.2,   -1.1,   -1.1,   -1.1,   -1.0,   -1.0,   -0.8,   -0.8,   -0.7,   -0.8,   -0.8,   -0.8,   -0.7,   -0.6,   -0.6,   -0.7,   -0.6,   -0.5,   -0.4,   -0.3,   -0.1,  999.0,  999.0,  999.0,  999.0,  999.0,  999.0,  999.0,  999.0,  999.0,  999.0,  999.0,  999.0,  999.0,  999.0,  999.0,  999.0,  999.0,  999.0
2007/10/13 16:10,   -0.0,   -0.0,    0.0,    0.0,    0.1,    0.0,   -0.0,   -0.1,   -0.1,   -0.1,   -0.0,    0.0,    0.0,   -0.1,   -0.0,    0.1,    0.1,    0.1,    0.1,    0.0,    0.1,    0.1,    0.0,   -0.0,   -0.0,   -0.0,   -0.0,   -0.2,   -0.5,   -0.6,   -0.9,   -1.1,   -1.2,   -1.2,   -1.1,   -1.1,   -1.1,   -1.1,   -1.1,   -1.1,   -1.1,   -1.1,   -1.0,   -1.0,   -1.0,   -0.9,   -0.8,   -0.8,   -0.7,   -0.7,   -0.7,   -0.7,   -0.7,   -0.6,   -0.5,   -0.5,   -0.2,   -0.1,   -0.1,  999.0,  999.0,  999.0,  999.0,  999.0,  999.0,  999.0,  999.0,  999.0,  999.0,  999.0,  999.0,  999.0,  999.0,  999.0,  999.0,  999.0,  999.0,  999.0,  999.0,  999.0
2007/10/13 16:20,    0.0,    0.0,    0.1,    0.1,    0.2,    0.1,    0.1,  999.0,    0.1,   -0.0,   -0.1,   -0.1,   -0.0,   -0.0,    0.0,   -0.0,    0.0,    0.0,    0.0,   -0.1,   -0.1,   -0.2,    0.0,   -0.0,    0.0,   -0.0,   -0.1,   -0.1,   -0.2,   -0.3,   -0.9,   -0.9,   -1.0,   -1.1,   -1.0,   -1.1,   -1.1,   -1.0,   -1.0,   -1.0,   -1.0,   -0.9,   -1.0,   -1.0,   -1.0,   -1.0,   -0.9,   -1.0,   -1.0,   -1.0,   -1.0,   -0.9,   -0.9,   -0.8,   -0.7,   -0.6,   -0.6,   -0.5,   -0.4,   -0.2,   -0.0,  999.0,  999.0,  999.0,  999.0,  999.0,  999.0,  999.0,  999.0,  999.0,  999.0,  999.0,  999.0,  999.0,  999.0,  999.0,  999.0,  999.0,  999.0,  999.0
2007/10/13 16:30,    0.0,    0.1,    0.1,    0.1,    0.2,    0.1,   -0.0,    0.0,   -0.1,   -0.1,   -0.1,   -0.0,    0.1,    0.0,    0.0,    0.1,    0.1,    0.2,    0.1,    0.1,    0.1,    0.1,    0.1,    0.1,    0.0,    0.0,   -0.0,   -0.1,   -0.2,   -0.6,   -0.8,   -0.9,   -1.0,   -1.0,   -1.0,   -1.0,   -1.0,   -1.0,   -1.0,   -1.0,   -0.9,   -0.9,   -1.0,   -0.9,   -1.0,   -0.9,   -0.9,   -0.8,   -0.8,   -0.8,   -0.8,   -0.8,   -0.8,   -0.8,   -0.6,   -0.5,   -0.5,   -0.4,   -0.3,   -0.2,    0.0,  999.0,  999.0,  999.0,  999.0,  999.0,  999.0,  999.0,  999.0,  999.0,  999.0,  999.0,  999.0,  999.0,  999.0,  999.0,  999.0,  999.0,  999.0,  999.0
2007/10/13 16:40,  999.0,    0.0,    0.0,    0.1,    0.0,    0.0,   -0.1,   -0.1,   -0.2,   -0.2,   -0.2,   -0.3,   -0.2,   -0.1,   -0.0,   -0.1,   -0.0,   -0.0,   -0.0,   -0.2,   -0.1,   -0.0,   -0.0,    0.0,   -0.0,   -0.0,   -0.4,   -0.8,   -1.0,   -1.0,   -1.0,   -1.0,   -1.0,   -1.0,   -1.1,   -1.1,   -1.1,   -1.2,   -1.1,   -1.1,   -1.1,   -1.0,   -1.1,   -1.1,   -1.1,   -1.1,   -1.1,   -1.1,   -1.1,   -1.0,   -0.9,   -0.9,   -0.8,   -0.7,   -0.7,   -0.6,   -0.4,   -0.2,   -0.2,  999.0,  999.0,  999.0,  999.0,  999.0,  999.0,  999.0,  999.0,  999.0,  999.0,  999.0,  999.0,  999.0,  999.0,  999.0,  999.0,  999.0,  999.0,  999.0,  999.0,  999.0
2007/10/13 16:50,  999.0,   -0.0,    0.0,    0.1,    0.2,    0.3,    0.2,    0.1,    0.1,   -0.0,   -0.1,   -0.2,   -0.2,   -0.1,    0.0,    0.0,    0.0,    0.1,    0.1,    0.2,   -0.0,    0.2,    0.2,    0.1,    0.0,    0.0,   -0.1,   -0.2,   -0.6,   -0.6,   -0.8,   -0.9,   -1.0,   -1.1,   -1.1,   -1.2,   -1.2,   -1.2,   -1.2,   -1.2,   -1.2,   -1.1,   -1.1,   -1.1,   -1.1,   -1.2,   -1.2,   -1.1,   -1.1,   -1.2,   -1.1,   -1.0,   -1.0,   -1.0,   -0.9,   -0.8,   -0.7,   -0.7,   -0.5,   -0.3,   -0.2,   -0.1,  999.0,  999.0,  999.0,  999.0,  999.0,  999.0,  999.0,  999.0,  999.0,  999.0,  999.0,  999.0,  999.0,  999.0,  999.0,  999.0,  999.0,  999.0
2007/10/13 17:00,  999.0,    0.0,    0.0,    0.2,    0.2,    0.3,    0.2,    0.2,    0.1,   -0.1,   -0.1,   -0.2,   -0.2,   -0.1,   -0.1,   -0.0,   -0.0,    0.0,   -0.0,   -0.0,    0.0,    0.0,    0.0,    0.0,    0.0,    0.1,    0.1,   -0.0,   -0.5,   -0.5,   -0.8,   -0.9,   -1.0,   -1.1,   -1.2,   -1.2,   -1.3,   -1.4,   -1.3,   -1.2,   -1.2,   -1.2,   -1.2,   -1.2,   -1.2,   -1.1,   -1.1,   -1.1,   -1.1,   -1.0,   -1.0,   -0.9,   -0.8,   -0.8,   -0.7,   -0.6,   -0.5,   -0.4,   -0.3,   -0.0,   -0.0,    0.1,  999.0,  999.0,  999.0,  999.0,  999.0,  999.0,  999.0,  999.0,  999.0,  999.0,  999.0,  999.0,  999.0,  999.0,  999.0,  999.0,  999.0,  999.0
2007/10/13 17:10,    0.0,    0.0,    0.0,    0.1,    0.1,    0.2,    0.1,    0.0,   -0.0,   -0.2,   -0.2,   -0.4,   -0.3,   -0.2,   -0.1,   -0.1,   -0.0,   -0.0,   -0.0,   -0.0,   -0.1,    0.0,   -0.0,   -0.0,    0.0,   -0.1,   -0.1,   -0.5,   -0.9,  999.0,   -1.1,   -1.2,   -1.3,   -1.4,   -1.4,   -1.4,   -1.5,   -1.6,   -1.6,   -1.6,   -1.5,   -1.5,   -1.5,   -1.5,   -1.5,   -1.5,   -1.4,   -1.3,   -1.2,   -1.3,   -1.3,   -1.2,   -1.0,   -1.0,   -0.9,   -0.6,   -0.6,   -0.5,   -0.3,   -0.2,    0.1,    0.4,  999.0,  999.0,  999.0,  999.0,  999.0,  999.0,  999.0,  999.0,  999.0,  999.0,  999.0,  999.0,  999.0,  999.0,  999.0,  999.0,  999.0,  999.0
2007/10/13 17:20,    0.0,    0.0,    0.0,    0.2,    0.2,    0.2,    0.1,    0.1,   -0.0,   -0.2,   -0.2,   -0.4,   -0.4,   -0.3,   -0.2,   -0.1,   -0.1,   -0.0,   -0.0,   -0.0,    0.0,   -0.0,   -0.0,   -0.0,    0.0,    0.0,    0.0,   -0.1,   -0.3,   -0.7,   -0.8,   -1.5,   -1.7,   -1.7,   -1.7,   -1.7,   -1.7,   -1.7,   -1.7,   -1.5,   -1.5,   -1.4,   -1.4,   -1.4,   -1.3,   -1.2,   -1.2,   -1.2,   -1.2,   -1.2,   -1.1,   -1.1,   -1.0,   -0.9,   -0.7,   -0.9,   -0.8,   -0.7,   -0.5,   -0.2,    0.2,    0.2,  999.0,  999.0,  999.0,  999.0,  999.0,  999.0,  999.0,  999.0,  999.0,  999.0,  999.0,  999.0,  999.0,  999.0,  999.0,  999.0,  999.0,  999.0
2007/10/13 17:30,    0.0,    0.0,    0.0,    0.0,    0.1,    0.2,    0.2,    0.1,    0.0,   -0.1,   -0.2,   -0.3,   -0.2,   -0.2,   -0.1,   -0.1,   -0.1,   -0.1,   -0.1,   -0.0,   -0.0,   -0.0,   -0.0,   -0.0,   -0.1,   -0.1,   -0.1,   -0.1,   -0.1,   -0.2,   -0.0,   -0.5,   -1.0,   -0.9,   -1.2,   -1.2,   -1.2,   -1.2,   -1.2,   -1.2,   -1.1,   -1.1,   -1.1,   -1.1,   -1.0,   -1.1,   -1.0,   -1.0,   -1.1,   -0.9,   -1.0,   -0.9,   -0.7,   -0.6,   -0.7,   -0.7,   -0.8,   -0.6,   -0.2,   -0.1,  999.0,  999.0,  999.0,  999.0,  999.0,  999.0,  999.0,  999.0,  999.0,  999.0,  999.0,  999.0,  999.0,  999.0,  999.0,  999.0,  999.0,  999.0,  999.0,  999.0
2007/10/13 17:40,    0.0,    0.0,    0.1,    0.1,    0.1,    0.1,    0.2,    0.1,    0.0,   -0.1,   -0.2,   -0.2,   -0.1,   -0.1,   -0.2,   -0.1,   -0.1,   -0.1,   -0.0,   -0.1,    0.0,    0.0,  999.0,  999.0,  999.0,    0.0,   -0.0,    0.0,    0.0,    0.0,   -0.0,   -0.1,   -0.3,   -0.4,   -0.8,   -1.1,   -1.2,   -1.2,   -1.3,   -1.3,   -1.3,   -1.3,   -1.3,   -1.3,   -1.4,   -1.3,   -1.4,   -1.3,   -1.3,   -1.2,   -1.2,   -1.2,   -1.0,   -1.0,   -0.9,   -0.9,   -0.8,   -0.8,   -0.5,   -0.2,   -0.1,    0.2,  999.0,  999.0,  999.0,  999.0,  999.0,  999.0,  999.0,  999.0,  999.0,  999.0,  999.0,  999.0,  999.0,  999.0,  999.0,  999.0,  999.0,  999.0
2007/10/13 17:50,    0.0,   -0.1,    0.0,    0.0,    0.2,    0.1,    0.1,    0.0,   -0.0,   -0.2,   -0.2,   -0.3,   -0.2,   -0.2,   -0.0,   -0.0,    0.0,    0.1,    0.1,    0.0,   -0.0,    0.0,   -0.0,   -0.0,   -0.0,   -0.0,   -0.0,    0.0,    0.0,    0.0,    0.0,   -0.1,   -0.3,   -1.0,   -1.5,   -1.6,   -1.6,   -1.6,   -1.5,   -1.6,   -1.5,   -1.5,   -1.4,   -1.4,   -1.3,   -1.2,   -1.2,   -1.3,   -1.4,   -1.3,   -1.2,   -1.3,   -1.3,   -1.2,   -1.1,   -1.1,   -1.0,   -0.9,   -0.6,   -0.3,   -0.0,   -0.0,  999.0,  999.0,  999.0,  999.0,  999.0,  999.0,  999.0,  999.0,  999.0,  999.0,  999.0,  999.0,  999.0,  999.0,  999.0,  999.0,  999.0,  999.0
2007/10/13 18:00,    0.0,   -0.0,   -0.0,   -0.1,    0.0,   -0.1,   -0.1,   -0.2,   -0.3,   -0.4,   -0.6,   -0.5,   -0.3,   -0.3,    0.0,    0.1,    0.0,    0.0,    0.0,   -0.0,   -0.0,   -0.0,   -0.0,   -0.0,   -0.1,   -0.0,   -0.1,   -0.0,   -0.1,   -0.0,   -0.5,   -1.1,   -1.8,   -1.7,   -1.9,   -1.6,   -1.7,   -1.7,   -1.8,   -1.8,   -1.7,   -1.8,   -1.7,   -1.8,   -1.8,   -1.7,   -1.6,   -1.6,   -1.7,   -1.6,   -1.6,   -1.4,   -1.3,   -1.2,   -1.3,   -1.2,   -1.0,   -0.9,   -0.7,   -0.6,   -0.3,    0.0,    0.1,    0.2,  999.0,  999.0,  999.0,  999.0,  999.0,  999.0,  999.0,  999.0,  999.0,  999.0,  999.0,  999.0,  999.0,  999.0,  999.0,  999.0
2007/10/13 18:10,   -0.0,   -0.0,    0.0,    0.0,    0.0,   -0.1,   -0.1,   -0.2,   -0.3,   -0.3,   -0.6,   -0.4,   -0.2,   -0.2,   -0.0,    0.1,    0.1,    0.1,    0.0,   -0.1,   -0.1,    0.1,    0.0,    0.0,   -0.1,    0.0,    0.2,   -0.1,   -0.2,   -1.5,   -1.6,   -1.7,   -1.9,   -1.9,   -1.9,   -1.9,   -1.8,   -1.8,   -1.9,   -1.8,   -1.8,   -1.7,   -1.8,   -1.8,   -1.8,   -1.8,   -1.9,   -1.9,   -1.8,   -1.8,   -1.6,   -1.4,   -1.3,   -1.2,   -1.0,   -0.9,   -0.8,   -0.6,   -0.4,   -0.3,   -0.0,    0.2,    0.3,  999.0,  999.0,  999.0,  999.0,  999.0,  999.0,  999.0,  999.0,  999.0,  999.0,  999.0,  999.0,  999.0,  999.0,  999.0,  999.0,  999.0
2007/10/13 18:20,   -0.0,    0.0,   -0.0,   -0.1,    0.0,    0.1,   -0.0,   -0.1,   -0.2,   -0.1,   -0.4,   -0.5,   -0.1,   -0.0,    0.1,    0.2,    0.1,    0.1,    0.2,    0.1,   -0.2,   -0.2,   -0.0,   -0.2,    0.1,    0.1,  999.0,  999.0,   -1.1,   -1.5,   -1.8,   -2.0,   -2.0,   -2.1,   -2.0,   -2.0,   -1.9,   -1.8,   -1.8,   -1.9,   -1.9,   -1.9,   -2.0,   -2.0,   -2.0,   -1.9,   -1.9,   -1.9,   -1.7,   -1.6,   -1.5,   -1.3,   -1.3,   -1.2,   -1.2,   -1.2,   -1.0,   -0.9,   -0.4,   -0.0,    0.2,    0.3,  999.0,  999.0,  999.0,  999.0,  999.0,  999.0,  999.0,  999.0,  999.0,  999.0,  999.0,  999.0,  999.0,  999.0,  999.0,  999.0,  999.0,  999.0
2007/10/13 18:30,    0.0,   -0.0,   -0.1,    0.0,    0.1,    0.0,   -0.0,   -0.1,   -0.1,   -0.2,   -0.2,   -0.2,   -0.0,   -0.0,    0.0,    0.1,    0.0,    0.1,    0.1,   -0.0,   -0.0,   -0.0,    0.0,    0.0,    0.0,    0.1,    0.0,   -0.3,   -0.4,   -1.2,   -1.5,   -1.7,   -1.8,   -1.8,   -1.8,   -1.7,   -1.6,   -1.7,   -1.8,   -1.8,   -1.7,   -1.7,   -1.6,   -1.6,   -1.5,   -1.4,   -1.5,   -1.1,   -1.4,   -1.3,   -1.1,   -1.1,   -1.2,   -1.2,   -1.1,   -1.0,   -0.9,   -0.7,   -0.5,   -0.2,    0.3,    0.1,  999.0,  999.0,  999.0,  999.0,  999.0,  999.0,  999.0,  999.0,  999.0,  999.0,  999.0,  999.0,  999.0,  999.0,  999.0,  999.0,  999.0,  999.0
2007/10/13 18:40,    0.0,    0.0,    0.1,    0.1,    0.1,    0.1,   -0.0,    0.0,   -0.1,   -0.1,   -0.2,   -0.2,  999.0,   -0.1,    0.0,    0.1,    0.1,    0.1,    0.1,    0.1,    0.1,   -0.0,   -0.0,   -0.0,    0.0,    0.1,    0.2,    0.1,   -0.9,   -1.3,   -1.8,   -1.9,   -2.0,   -2.0,   -2.0,   -1.9,   -1.8,   -1.8,   -1.8,   -1.8,   -1.7,   -1.7,   -1.7,   -1.7,   -1.6,   -1.6,   -1.6,   -1.6,   -1.5,   -1.4,   -1.2,   -1.1,   -1.1,   -1.0,   -1.1,   -1.0,   -0.9,   -0.7,   -0.4,   -0.2,   -0.1,  999.0,  999.0,  999.0,  999.0,  999.0,  999.0,  999.0,  999.0,  999.0,  999.0,  999.0,  999.0,  999.0,  999.0,  999.0,  999.0,  999.0,  999.0,  999.0
2007/10/13 18:50,    0.0,    0.0,    0.0,    0.2,    0.3,    0.3,    0.1,   -0.0,   -0.1,   -0.0,   -0.1,   -0.1,   -0.1,   -0.0,    0.1,    0.1,   -0.0,    0.0,   -0.1,   -0.1,  999.0,   -0.1,   -0.2,   -0.1,   -0.1,   -1.1,   -1.6,   -1.6,   -1.5,   -1.6,   -1.6,   -1.8,   -1.8,   -1.8,   -1.8,   -1.8,   -1.8,   -1.8,   -1.8,   -1.7,   -1.7,   -1.7,   -1.6,   -1.5,   -1.7,   -2.0,   -2.0,   -2.0,   -2.0,   -1.9,   -1.7,   -1.6,   -1.5,   -1.4,   -1.4,   -1.2,   -1.1,   -0.9,   -0.7,   -0.5,   -0.2,   -0.2,   -0.3,   -0.1,  999.0,  999.0,  999.0,  999.0,  999.0,  999.0,  999.0,  999.0,  999.0,  999.0,  999.0,  999.0,  999.0,  999.0,  999.0,  999.0
2007/10/13 19:00,  999.0,    0.0,    0.0,    0.1,    0.2,    0.4,    0.0,   -0.0,   -0.1,   -0.1,    0.0,   -0.0,   -0.1,   -0.1,   -0.1,   -0.0,    0.0,    0.1,    0.1,  999.0,  999.0,    0.1,   -0.0,  999.0,   -0.5,   -1.3,   -1.7,   -1.5,   -1.8,   -1.9,   -2.0,   -2.1,   -1.9,   -1.9,   -1.6,   -1.3,   -0.8,   -0.8,   -0.8,   -0.7,   -0.8,   -0.8,   -1.3,   -1.3,   -1.7,   -1.8,   -1.7,   -1.6,   -1.8,   -1.7,   -1.5,   -1.6,   -1.3,   -1.2,   -1.2,   -1.1,   -0.9,   -0.7,   -0.5,   -0.1,    0.0,  999.0,  999.0,  999.0,  999.0,  999.0,  999.0,  999.0,  999.0,  999.0,  999.0,  999.0,  999.0,  999.0,  999.0,  999.0,  999.0,  999.0,  999.0,  999.0
2007/10/13 19:10,   -0.0,    0.0,    0.0,    0.1,    0.1,    0.2,    0.2,    0.1,   -0.0,   -0.2,    0.1,    0.1,    0.1,    0.0,    0.1,    0.1,    0.1,    0.0,    0.0,    0.0,    0.0,    0.0,   -0.0,   -0.1,   -0.0,   -0.1,    0.0,   -0.3,   -1.7,   -1.9,   -2.2,   -2.2,   -2.0,   -1.7,   -1.4,   -1.1,   -1.0,   -1.1,   -1.1,   -1.9,   -1.9,   -1.9,   -2.0,   -1.9,   -1.8,   -1.8,   -1.6,   -1.6,   -1.4,   -1.3,   -1.2,   -1.2,   -1.1,   -1.0,   -0.9,   -0.9,   -0.8,   -0.6,   -0.3,   -0.2,  999.0,  999.0,  999.0,  999.0,  999.0,  999.0,  999.0,  999.0,  999.0,  999.0,  999.0,  999.0,  999.0,  999.0,  999.0,  999.0,  999.0,  999.0,  999.0,  999.0
2007/10/13 19:20,    0.0,    0.0,    0.0,    0.0,    0.3,    0.2,    0.1,    0.1,    0.1,   -0.1,   -0.0,    0.1,    0.2,    0.1,   -0.0,    0.1,    0.0,   -0.0,    0.1,   -0.2,   -0.1,    0.0,    0.0,   -0.1,   -0.1,   -0.6,   -1.1,   -1.3,   -1.4,   -1.6,   -1.8,   -1.9,   -1.9,   -1.9,   -2.0,   -1.9,   -1.9,   -1.9,   -1.9,   -1.9,   -1.8,   -1.8,   -1.8,   -1.9,   -1.9,   -1.9,   -1.8,   -1.7,   -1.5,   -1.4,   -1.3,   -1.1,   -1.0,   -0.9,   -1.1,   -0.9,   -0.8,   -0.7,   -0.6,   -0.4,   -0.3,   -0.0,    0.1,  999.0,  999.0,  999.0,  999.0,  999.0,  999.0,  999.0,  999.0,  999.0,  999.0,  999.0,  999.0,  999.0,  999.0,  999.0,  999.0,  999.0
2007/10/13 19:30,   -0.0,    0.0,   -0.0,    0.1,    0.0,   -0.0,    0.1,   -0.0,   -0.0,   -0.2,    0.3,    0.0,    0.0,    0.0,    0.0,   -0.0,    0.0,    0.0,    0.1,   -0.1,    0.1,    0.0,    0.0,    0.0,   -0.0,    0.0,   -0.7,   -1.0,   -1.2,   -1.2,   -1.6,   -1.8,   -1.8,   -1.9,   -1.8,   -1.7,   -1.6,   -1.4,   -1.3,   -1.3,   -1.2,   -1.3,   -1.3,   -1.4,   -1.6,   -1.7,   -1.7,   -1.6,   -1.6,   -1.5,   -1.2,   -1.1,   -1.1,   -0.9,   -0.8,   -0.6,   -0.6,   -0.6,   -0.6,   -0.6,   -0.3,   -0.1,    0.1,  999.0,  999.0,  999.0,  999.0,  999.0,  999.0,  999.0,  999.0,  999.0,  999.0,  999.0,  999.0,  999.0,  999.0,  999.0,  999.0,  999.0
2007/10/13 19:40,   -0.0,   -0.0,    0.1,    0.1,    0.1,    0.2,    0.1,   -0.0,    0.1,    0.0,   -0.0,   -0.2,    0.0,    0.2,    0.0,   -0.1,   -0.1,   -0.1,   -0.1,   -0.2,   -0.1,   -0.0,    0.0,   -0.0,   -0.0,   -0.0,   -0.0,   -0.0,    0.1,   -0.7,   -1.4,   -1.4,   -1.1,   -1.5,   -1.7,   -1.7,   -2.1,   -2.1,   -2.0,   -2.0,   -1.9,   -1.9,   -1.9,   -1.9,   -1.9,   -1.9,   -1.8,   -1.8,   -1.7,   -1.6,   -1.4,   -1.2,   -1.2,   -1.0,   -0.9,   -0.8,   -0.6,   -0.6,   -0.6,   -0.4,   -0.1,   -0.1,   -0.0,  999.0,  999.0,  999.0,  999.0,  999.0,  999.0,  999.0,  999.0,  999.0,  999.0,  999.0,  999.0,  999.0,  999.0,  999.0,  999.0,  999.0
2007/10/13 19:50,    0.0,    0.0,   -0.0,  999.0,    0.0,    0.0,    0.1,   -0.0,   -0.1,    0.0,   -0.1,   -0.0,   -0.1,    0.1,    0.1,   -0.0,   -0.1,   -0.3,    0.1,    0.1,    0.1,   -0.1,   -0.0,   -0.2,   -0.2,   -0.4,   -0.8,   -0.8,   -1.6,   -0.9,   -1.4,   -2.0,   -1.9,   -2.2,   -2.1,   -2.0,   -2.1,   -2.0,   -1.9,   -1.9,   -1.9,   -1.9,   -1.9,   -1.9,   -1.8,   -1.8,   -1.8,   -1.6,   -1.6,   -1.5,   -1.4,   -1.2,   -1.2,   -1.1,   -0.9,   -0.9,   -0.8,   -0.7,   -0.6,   -0.4,   -0.3,   -0.1,   -0.1,   -0.1,  999.0,  999.0,  999.0,  999.0,  999.0,  999.0,  999.0,  999.0,  999.0,  999.0,  999.0,  999.0,  999.0,  999.0,  999.0,  999.0
2007/10/13 20:00,    0.0,    0.0,    0.0,    0.1,   -0.1,   -0.1,   -0.0,    0.1,    0.3,    0.5,    0.3,    0.2,    1.0,    0.7,    0.5,    0.5,    0.4,    0.2,    0.6,    0.2,   -0.2,   -0.1,   -0.6,   -0.4,   -0.4,   -1.5,   -1.7,   -1.7,   -1.7,   -1.7,   -1.8,   -1.8,   -2.0,   -2.1,   -2.1,   -2.0,   -2.0,   -1.9,   -1.9,   -1.8,   -1.8,   -1.8,   -1.7,   -1.7,   -1.6,   -1.7,   -1.6,   -1.5,   -1.4,   -1.3,   -1.2,   -1.1,   -1.1,   -0.9,   -0.9,   -1.0,   -0.9,   -0.8,   -0.7,   -0.7,   -0.5,   -0.4,   -0.3,   -0.1,   -0.0,    0.1,  999.0,  999.0,  999.0,  999.0,  999.0,  999.0,  999.0,  999.0,  999.0,  999.0,  999.0,  999.0,  999.0,  999.0
2007/10/13 20:10,  999.0,   -0.0,    0.0,   -0.2,    0.0,   -0.2,   -0.1,   -0.3,   -0.2,   -0.5,   -0.4,   -0.2,   -0.3,   -0.2,   -0.3,   -0.2,   -0.2,   -0.2,   -0.7,   -0.1,   -0.1,   -0.0,    0.2,    0.2,    0.0,   -0.3,   -1.4,   -1.6,   -1.8,   -1.9,   -1.7,   -1.8,   -1.8,   -1.8,   -1.8,   -1.8,   -1.7,   -1.7,   -1.6,   -1.6,   -1.5,   -1.5,   -1.5,   -1.4,   -1.5,   -1.4,   -1.3,   -1.3,   -1.2,   -1.2,   -1.1,   -1.1,   -1.0,   -0.9,   -0.8,   -0.7,   -0.7,   -0.7,   -0.7,   -0.6,   -0.4,   -0.4,   -0.2,   -0.0,    0.1,    0.2,  999.0,  999.0,  999.0,  999.0,  999.0,  999.0,  999.0,  999.0,  999.0,  999.0,  999.0,  999.0,  999.0,  999.0
2007/10/13 20:20,   -0.1,    0.1,    0.0,   -0.0,    0.0,   -0.0,    0.1,    0.0,    0.3,  999.0,    0.2,    0.2,   -0.1,    0.3,    0.2,    0.2,    0.1,    0.3,    0.1,    0.3,  999.0,    0.3,    0.3,   -0.1,    0.0,   -0.0,   -0.6,   -1.2,   -1.6,   -1.7,   -1.6,   -1.5,   -1.6,   -1.6,   -1.7,   -1.6,   -1.7,   -1.7,   -1.7,   -1.6,   -1.7,   -1.6,   -1.5,   -1.5,   -1.5,   -1.4,   -1.4,   -1.4,   -1.3,   -1.2,   -1.1,   -1.1,   -1.0,   -0.9,   -0.8,   -0.8,   -0.7,   -0.8,   -0.8,   -0.6,   -0.5,   -0.3,   -0.2,   -0.1,    0.1,    0.4,  999.0,  999.0,  999.0,  999.0,  999.0,  999.0,  999.0,  999.0,  999.0,  999.0,  999.0,  999.0,  999.0,  999.0
2007/10/13 20:30,    0.1,    0.0,    0.1,    0.0,   -0.0,   -0.1,   -0.0,   -0.0,   -0.1,   -0.1,  999.0,   -0.0,    0.3,    0.2,    0.1,    0.2,   -0.2,   -0.3,   -0.3,   -0.3,   -0.1,   -0.1,   -0.1,    0.1,   -0.1,   -0.0,   -0.3,   -0.5,   -0.7,   -1.7,   -1.5,   -1.2,   -1.8,   -1.8,   -1.9,   -1.8,   -1.6,   -1.6,   -1.5,   -1.5,   -1.4,   -1.4,   -1.4,   -1.3,   -1.3,   -1.4,   -1.4,   -1.3,   -1.3,   -1.2,   -1.1,   -1.1,   -1.0,   -0.9,   -0.8,   -0.7,   -0.7,   -0.7,   -0.6,   -0.6,   -0.5,   -0.4,   -0.4,   -0.4,   -0.5,  999.0,  999.0,  999.0,  999.0,  999.0,  999.0,  999.0,  999.0,  999.0,  999.0,  999.0,  999.0,  999.0,  999.0,  999.0
2007/10/13 20:40,    0.1,    0.0,    0.1,    0.1,    0.3,    0.6,    0.1,    0.1,    0.3,   -0.1,    0.0,    0.1,    0.2,    0.1,   -0.1,   -0.1,   -0.1,   -0.2,   -0.2,   -0.2,   -0.2,    0.0,   -0.1,   -0.2,   -0.0,   -0.3,   -0.2,   -0.6,   -1.1,   -1.2,   -1.8,   -1.8,   -2.1,   -2.0,   -1.9,   -1.5,   -1.6,   -1.4,   -1.4,   -1.4,   -1.4,   -1.4,   -1.4,   -1.2,   -1.3,   -1.3,   -1.2,   -1.2,   -1.1,   -1.1,   -1.1,   -0.9,   -0.9,   -0.8,   -0.7,   -0.6,   -0.7,   -0.5,   -0.4,   -0.1,   -0.2,   -0.2,   -0.1,   -0.1,  999.0,  999.0,  999.0,  999.0,  999.0,  999.0,  999.0,  999.0,  999.0,  999.0,  999.0,  999.0,  999.0,  999.0,  999.0,  999.0
2007/10/13 20:50,    0.0,   -0.0,    0.2,    0.0,    0.3,    0.3,    0.2,    0.7,    0.3,   -0.0,   -0.0,    0.1,   -0.0,    0.2,    0.1,   -0.0,    0.1,   -0.1,    0.0,   -0.1,   -0.0,    0.1,   -0.1,   -0.0,    0.0,   -0.1,   -0.1,   -0.1,   -0.1,   -0.1,   -0.7,   -1.0,   -1.4,   -1.4,   -1.4,   -1.4,   -1.5,   -1.5,   -1.5,   -1.5,   -1.4,   -1.4,   -1.3,   -1.2,   -1.1,   -1.1,   -1.1,   -1.0,   -1.0,   -0.9,   -0.8,   -0.8,   -0.7,   -0.6,   -0.6,   -0.5,   -0.5,   -0.4,   -0.3,   -0.1,   -0.1,   -0.1,    0.0,   -0.1,   -0.1,   -0.1,   -0.1,    0.2,  999.0,  999.0,  999.0,  999.0,  999.0,  999.0,  999.0,  999.0,  999.0,  999.0,  999.0,  999.0
2007/10/13 21:00,    0.0,    0.0,    0.0,   -0.0,    0.0,   -0.1,   -0.1,   -0.1,   -0.2,    0.1,    0.3,   -0.0,   -0.0,    0.5,   -0.2,   -0.3,    0.0,   -0.1,   -0.2,    0.5,   -0.1,   -0.0,    0.0,   -0.1,    0.1,    0.1,    0.2,    0.1,    0.0,   -0.0,   -0.4,   -0.6,   -0.8,   -0.9,   -1.1,   -1.5,   -1.6,   -1.6,   -1.6,   -1.6,   -1.6,   -1.6,   -1.5,   -1.5,   -1.4,   -1.4,   -1.3,   -1.1,   -1.0,   -1.0,   -0.9,   -0.8,   -0.7,   -0.5,   -0.6,   -0.5,   -0.4,   -0.3,   -0.2,    0.1,    0.1,  999.0,  999.0,  999.0,  999.0,  999.0,  999.0,  999.0,  999.0,  999.0,  999.0,  999.0,  999.0,  999.0,  999.0,  999.0,  999.0,  999.0,  999.0,  999.0
2007/10/13 21:10,    0.1,   -0.0,    0.0,    0.1,   -0.0,    0.1,    0.1,    0.2,    0.2,    0.2,    0.3,    0.3,    0.4,  999.0,    0.4,    0.4,    0.4,    0.2,    0.5,    0.4,    0.5,    0.2,    0.5,    0.2,    0.2,    0.2,    0.1,   -0.0,   -0.1,   -0.1,   -0.5,   -0.9,   -0.9,   -1.1,   -1.1,   -1.2,   -1.4,   -1.4,   -1.3,   -1.2,   -1.3,   -1.3,   -1.3,   -1.3,   -1.3,   -1.2,   -1.3,   -1.1,   -0.9,   -0.8,   -0.7,   -0.7,   -0.7,   -0.6,   -0.5,   -0.5,   -0.4,   -0.4,   -0.3,   -0.3,   -0.4,   -0.3,   -0.4,   -0.8,   -0.5,   -0.0,   -0.6,    0.1,    0.4,   -0.2,    0.2,   -0.3,    0.1,    0.3,  999.0,  999.0,  999.0,  999.0,  999.0,  999.0
2007/10/13 21:20,    0.0,   -0.0,    0.1,   -0.0,   -0.0,   -0.1,   -0.1,   -0.2,   -0.1,   -0.1,    0.1,   -0.2,   -0.0,    0.3,    0.0,    0.4,    0.4,   -0.1,    0.1,    0.2,   -0.6,   -0.4,  999.0,    0.0,   -0.1,   -0.1,   -0.0,   -0.1,   -0.1,   -0.1,   -0.1,   -0.4,   -0.9,   -1.3,   -0.9,   -1.1,   -1.4,   -1.9,   -1.7,   -1.6,   -1.8,   -1.7,   -1.7,   -1.5,   -1.4,   -1.3,   -1.0,   -0.9,   -0.7,   -0.8,   -0.8,   -0.7,   -0.9,   -0.8,   -0.9,   -0.9,   -1.1,   -1.0,   -1.1,   -0.8,   -0.7,   -0.9,   -0.7,   -0.7,   -0.6,   -0.6,   -0.3,   -0.5,   -0.2,   -0.1,   -0.1,    0.0,  999.0,  999.0,  999.0,  999.0,  999.0,  999.0,  999.0,  999.0
2007/10/13 21:30,    0.0,    0.1,    0.1,   -0.1,    0.0,   -0.1,   -0.1,   -0.3,   -0.2,   -0.3,   -0.1,  999.0,  999.0,   -0.4,    0.4,   -0.1,  999.0,   -0.2,    0.7,    0.3,    0.5,   -0.0,   -0.5,   -0.2,    0.0,    0.1,    0.2,    0.2,    0.1,    0.1,   -0.3,  999.0,   -1.4,   -1.6,   -1.9,   -2.0,   -2.1,   -2.2,   -2.2,   -2.1,   -2.0,   -2.0,   -1.9,   -1.9,   -1.7,   -1.5,   -1.5,   -1.4,   -1.4,   -1.4,   -1.4,   -1.4,   -1.3,   -1.2,   -1.1,   -1.0,   -0.7,   -0.7,   -0.6,   -0.7,   -0.9,   -1.0,   -0.9,   -0.7,   -0.7,   -0.5,   -0.4,   -0.3,   -0.2,   -0.2,    0.0,  999.0,  999.0,  999.0,  999.0,  999.0,  999.0,  999.0,  999.0,  999.0
2007/10/13 21:40,   -0.0,    0.0,    0.1,    0.1,    0.1,   -0.1,   -0.1,   -0.1,    0.0,  999.0,   -0.1,    0.0,    0.0,    0.1,    0.0,    0.1,    1.0,    0.4,   -0.1,  999.0,   -0.1,    0.3,    0.2,    0.1,    0.1,    0.3,  999.0,   -0.5,   -1.0,   -1.1,  999.0,   -2.1,   -2.1,   -2.2,   -2.1,   -2.4,   -2.3,   -2.3,   -2.4,   -2.3,   -2.2,   -2.1,   -2.0,   -1.9,   -1.7,   -1.7,   -1.6,   -1.6,   -1.6,   -1.6,   -1.6,   -1.5,   -1.4,   -1.4,   -1.1,   -1.0,   -0.9,   -0.5,   -0.3,   -0.8,   -0.9,   -1.0,   -1.0,   -0.7,   -0.6,   -0.4,   -0.2,   -0.1,   -0.2,    0.1,  999.0,  999.0,  999.0,  999.0,  999.0,  999.0,  999.0,  999.0,  999.0,  999.0
2007/10/13 21:50,    0.1,   -0.0,    0.0,   -0.0,   -0.0,   -0.0,   -0.1,   -0.2,   -0.0,   -0.1,  999.0,   -0.2,   -0.2,  999.0,  999.0,  999.0,  999.0,  999.0,   -0.3,  999.0,  999.0,  999.0,  999.0,  999.0,  999.0,  999.0,   -1.6,   -1.6,   -1.7,   -1.9,   -2.0,   -2.2,   -2.2,   -2.3,   -2.5,   -2.5,   -2.4,   -2.2,   -2.1,   -1.9,   -1.6,   -1.6,   -1.4,   -1.3,   -1.4,   -1.2,   -1.1,   -1.2,   -1.3,   -1.3,   -1.3,   -1.4,   -1.5,   -1.2,   -1.2,   -0.7,   -0.3,   -0.8,   -1.2,   -1.3,   -1.2,   -1.1,   -0.9,   -0.8,   -0.7,   -0.6,   -0.4,   -0.3,    0.1,    0.0,  999.0,  999.0,  999.0,  999.0,  999.0,  999.0,  999.0,  999.0,  999.0,  999.0
2007/10/13 22:00,    0.1,    0.0,    0.1,    0.1,    0.2,    0.1,    0.0,   -0.0,    0.0,    0.1,   -0.3,    0.4,  999.0,  999.0,  999.0,  999.0,  999.0,  999.0,  999.0,    0.4,  999.0,  999.0,  999.0,  999.0,    0.1,   -0.1,  999.0,  999.0,  999.0,  999.0,   -1.5,   -1.5,   -1.7,   -1.8,   -1.9,   -2.2,   -2.2,   -1.7,   -1.5,   -1.4,   -1.2,   -1.2,   -1.0,   -1.0,   -0.9,   -0.9,   -0.8,   -0.7,   -0.9,   -1.1,   -1.2,   -1.1,   -1.3,   -1.3,   -1.0,   -0.0,   -0.4,   -0.8,   -1.4,   -1.3,   -1.1,   -1.3,   -0.9,   -1.0,   -1.0,   -0.8,   -0.5,   -0.5,  999.0,   -0.2,  999.0,  999.0,  999.0,  999.0,  999.0,  999.0,  999.0,  999.0,  999.0,  999.0
2007/10/13 22:10,    0.0,    0.0,   -0.0,    0.1,    0.1,    0.3,    0.3,   -0.0,    0.1,  999.0,    0.1,    0.1,  999.0,  999.0,    0.6,  999.0,    0.1,    0.3,    0.5,   -0.1,    0.2,    0.1,   -0.1,   -0.0,   -0.0,    0.0,    0.1,  999.0,  999.0,    0.1,    0.1,   -0.0,   -0.7,   -1.0,   -1.0,   -0.7,   -0.6,   -0.6,   -0.7,   -1.0,   -1.0,   -1.0,   -0.7,   -0.6,   -0.5,   -0.4,   -0.5,   -0.4,   -0.5,   -0.7,   -0.7,   -0.9,  999.0,  999.0,  999.0,   -0.1,   -0.4,  999.0,  999.0,  999.0,  999.0,  999.0,   -0.8,   -0.7,   -0.6,   -0.8,   -0.4,  999.0,  999.0,   -0.2,   -0.3,  999.0,  999.0,  999.0,  999.0,  999.0,  999.0,  999.0,  999.0,  999.0
2007/10/13 22:20,    0.0,    0.0,    0.1,    0.1,    0.1,    0.2,    0.6,    0.1,  999.0,  999.0,  999.0,    0.2,  999.0,  999.0,   -0.4,   -0.1,    0.1,   -0.1,    0.4,    0.2,    0.4,   -0.3,   -0.1,    0.1,    0.2,    0.1,    0.1,    0.2,    0.2,    0.1,    0.3,    0.1,    0.0,    0.0,   -0.0,   -0.2,   -0.1,   -0.2,   -0.2,   -0.8,   -1.1,   -1.2,   -1.1,   -0.9,   -0.8,   -0.6,   -0.7,   -0.5,   -0.5,   -0.8,   -0.5,   -0.3,   -0.4,  999.0,   -0.3,  999.0,  999.0,  999.0,  999.0,  999.0,  999.0,  999.0,  999.0,  999.0,  999.0,   -0.9,   -0.8,  999.0,  999.0,  999.0,   -0.2,  999.0,  999.0,  999.0,  999.0,  999.0,  999.0,  999.0,  999.0,  999.0
2007/10/13 22:30,    0.0,    0.0,    0.1,    0.1,    0.1,    0.2,    0.2,  999.0,  999.0,    0.1,   -0.3,  999.0,    0.1,   -0.1,  999.0,    0.1,   -0.2,    0.1,   -0.5,   -0.1,   -0.1,    0.2,    0.1,    0.1,   -0.0,   -0.0,   -0.0,    0.0,    0.1,    0.2,   -0.1,   -0.1,   -0.0,    0.0,   -0.0,   -0.0,   -0.0,   -0.5,   -1.1,   -1.3,   -1.7,   -1.8,   -1.5,   -1.5,   -1.5,   -1.5,   -1.4,   -1.5,   -1.4,   -1.5,   -1.4,   -1.2,   -1.1,   -0.8,   -0.6,   -0.7,   -0.2,    0.1,    0.2,  999.0,  999.0,  999.0,  999.0,  999.0,   -1.0,  999.0,  999.0,  999.0,  999.0,  999.0,  999.0,  999.0,  999.0,  999.0,  999.0,  999.0,  999.0,  999.0,  999.0,  999.0
2007/10/13 22:40,    0.0,    0.0,   -0.0,    0.2,    0.2,    0.2,    0.2,    0.3,   -0.1,   -0.1,   -0.2,   -0.0,  999.0,  999.0,    0.7,    0.4,   -0.2,    0.6,    0.2,  999.0,    0.1,   -0.1,   -0.1,    0.1,    0.1,    0.0,    0.0,    0.1,    0.1,    0.1,    0.1,    0.0,   -0.1,   -0.2,   -0.3,   -0.2,   -1.7,   -1.7,   -1.7,   -1.8,   -1.8,   -1.8,   -1.7,   -1.8,   -1.8,   -1.7,   -1.7,   -1.5,   -1.4,   -1.5,   -1.3,   -1.1,   -1.0,   -0.8,   -0.6,   -0.1,    0.3,    0.1,    0.4,  999.0,  999.0,  999.0,  999.0,  999.0,  999.0,  999.0,  999.0,  999.0,  999.0,  999.0,  999.0,  999.0,  999.0,  999.0,  999.0,  999.0,  999.0,  999.0,  999.0,  999.0
2007/10/13 22:50,    0.0,   -0.0,   -0.0,    0.2,    0.2,    0.2,    0.3,    0.2,   -0.0,   -0.0,   -0.1,    0.4,    0.5,   -0.2,   -0.5,    0.2,  999.0,    0.1,   -0.0,   -0.3,   -0.3,    0.0,   -0.1,    0.1,    0.2,    0.1,    0.0,    0.1,   -0.1,    0.0,   -0.0,   -0.1,   -0.1,   -0.0,   -0.2,   -0.2,   -1.5,   -1.7,   -1.8,   -1.8,   -1.8,   -1.7,   -1.7,   -1.7,   -1.7,   -1.6,   -1.7,   -1.7,   -1.7,   -1.7,   -1.6,   -1.5,   -1.5,   -1.2,   -1.1,   -0.8,   -0.4,   -0.0,    0.2,  999.0,  999.0,  999.0,  999.0,  999.0,  999.0,  999.0,  999.0,  999.0,  999.0,  999.0,  999.0,  999.0,  999.0,  999.0,  999.0,  999.0,  999.0,  999.0,  999.0,  999.0
2007/10/13 23:00,    0.0,    0.0,    0.0,    0.1,   -0.0,    0.0,    0.2,    0.2,    0.0,   -0.0,    0.0,    0.0,   -0.3,    0.0,   -0.3,  999.0,  999.0,  999.0,   -0.6,   -0.3,    0.1,   -0.4,   -0.3,   -0.2,   -0.0,    0.0,    0.1,    0.0,   -0.0,    0.0,    0.1,    0.0,    0.0,   -0.0,   -0.0,   -0.3,   -0.4,   -0.8,   -1.2,   -1.2,   -1.2,   -1.2,   -1.2,   -1.1,   -1.2,   -1.1,   -1.2,   -1.2,   -1.2,   -1.2,   -1.3,   -1.2,   -1.1,   -1.0,   -0.9,   -0.7,   -0.4,   -0.2,    0.0,  999.0,  999.0,  999.0,  999.0,  999.0,  999.0,  999.0,  999.0,  999.0,  999.0,  999.0,  999.0,  999.0,  999.0,  999.0,  999.0,  999.0,  999.0,  999.0,  999.0,  999.0
2007/10/13 23:10,    0.0,    0.0,   -0.0,   -0.2,   -0.0,   -0.0,  999.0,    0.1,   -0.1,   -0.1,  999.0,    0.0,   -0.1,  999.0,    1.7,    0.6,  999.0,    0.0,    0.3,    0.3,   -0.0,   -0.2,    0.6,    0.1,    0.0,    0.0,    0.1,   -0.1,  999.0,   -0.1,   -0.2,   -0.0,   -0.2,   -0.3,   -0.8,   -1.0,   -1.2,   -1.0,   -1.3,   -1.2,   -1.3,   -1.3,   -1.4,   -1.3,   -1.3,   -1.0,   -1.0,   -1.0,   -1.0,   -1.1,   -1.0,   -0.9,   -0.9,   -0.8,   -0.6,   -0.6,   -0.3,   -0.1,    0.1,  999.0,  999.0,  999.0,  999.0,  999.0,  999.0,  999.0,  999.0,  999.0,  999.0,  999.0,  999.0,  999.0,  999.0,  999.0,  999.0,  999.0,  999.0,  999.0,  999.0,  999.0
2007/10/13 23:20,    0.0,   -0.0,    0.3,    0.3,    0.6,   -0.0,    0.1,    0.1,    0.2,    0.3,    0.1,    0.3,  999.0,  999.0,  999.0,  999.0,  999.0,   -0.3,   -0.1,    0.1,   -0.0,   -0.1,   -0.3,    0.0,    0.1,    0.1,    0.0,    0.1,   -0.0,    0.0,   -0.1,   -0.1,   -0.2,   -0.2,   -0.4,   -0.7,   -0.7,   -0.6,   -0.8,   -0.9,   -1.0,   -1.0,   -1.1,   -1.1,   -1.0,   -1.0,   -0.9,   -0.9,   -0.9,   -1.0,   -1.0,   -1.0,   -1.0,   -0.9,   -0.8,   -0.5,   -0.2,    0.1,  999.0,  999.0,  999.0,  999.0,  999.0,  999.0,  999.0,  999.0,  999.0,  999.0,  999.0,  999.0,  999.0,  999.0,  999.0,  999.0,  999.0,  999.0,  999.0,  999.0,  999.0,  999.0
2007/10/13 23:30,    0.1,    0.0,   -0.0,   -0.1,   -0.1,   -0.0,    0.1,    0.1,   -0.1,    0.0,   -0.1,   -0.1,    0.1,   -0.4,  999.0,   -0.2,   -0.3,   -0.4,    0.0,    0.0,    0.1,   -0.0,    0.0,   -0.0,    0.0,    0.0,   -0.0,   -0.0,   -0.2,   -0.1,   -0.0,   -0.1,   -0.1,   -0.1,   -0.3,   -0.3,   -0.3,   -0.6,   -0.7,   -0.8,   -1.0,   -1.0,   -1.1,   -1.1,   -1.1,   -1.0,   -1.0,   -1.1,   -1.0,   -1.0,   -1.0,   -1.0,   -0.9,   -0.7,   -0.6,   -0.4,   -0.3,   -0.1,  999.0,  999.0,  999.0,  999.0,  999.0,  999.0,  999.0,  999.0,  999.0,  999.0,  999.0,  999.0,  999.0,  999.0,  999.0,  999.0,  999.0,  999.0,  999.0,  999.0,  999.0,  999.0
2007/10/13 23:40,    0.0,    0.0,   -0.0,   -0.0,   -0.1,   -0.2,    0.1,   -0.1,    0.1,    0.1,    0.1,    0.2,  999.0,   -0.3,   -0.1,    0.0,  999.0,  999.0,   -0.1,   -0.1,   -0.0,    0.0,   -0.0,   -0.0,   -0.0,    0.0,   -0.0,   -0.0,   -0.1,    0.1,    0.1,   -0.1,   -0.0,  999.0,   -0.3,   -1.1,   -0.9,   -0.9,   -1.1,   -1.1,   -1.1,   -1.0,   -1.1,   -1.0,   -1.1,   -1.0,   -1.0,   -0.9,   -0.9,   -1.0,   -1.0,   -0.8,   -0.8,   -0.6,   -0.5,   -0.2,    0.1,    0.2,  999.0,  999.0,  999.0,  999.0,  999.0,  999.0,  999.0,  999.0,  999.0,  999.0,  999.0,  999.0,  999.0,  999.0,  999.0,  999.0,  999.0,  999.0,  999.0,  999.0,  999.0,  999.0
2007/10/13 23:50,    0.0,   -0.0,    0.1,   -0.0,   -0.0,  999.0,    0.0,   -0.1,   -0.1,    0.0,   -0.0,  999.0,    0.1,   -0.1,  999.0,  999.0,  999.0,  999.0,  999.0,    0.1,    0.0,    0.1,   -0.0,    0.1,   -0.0,    0.0,    0.2,    0.0,    0.0,   -0.0,   -0.0,   -0.0,   -0.1,   -0.0,    0.1,    0.1,    0.0,   -0.0,   -0.0,   -0.1,    0.1,    0.1,   -0.1,   -0.1,    0.1,    0.1,   -0.1,    0.0,   -0.0,   -0.2,   -0.5,   -0.3,   -0.2,   -0.1,    0.1,    0.1,    0.3,    0.3,    0.0,  999.0,  999.0,  999.0,  999.0,  999.0,  999.0,  999.0,  999.0,  999.0,  999.0,  999.0,  999.0,  999.0,  999.0,  999.0,  999.0,  999.0,  999.0,  999.0,  999.0,  999.0
